Wetterdaten: Montag, 20.03.2017
Datum Zeit Temp. A. Feuchte A. Luftdruck Regen Wind Richtung Richtung Sonnenschein ET UV Solar Taupunkt Windchill Windben Empfang
20.03.2017 00:00 12,1 C 82 % 1009,4 hPa 0,0 l/m 22,7 km/h (4 Bft) SW 221 0 min 0,000 mm 0,0 UV-I 0 W/m 9,1 C 5,2 C 32,2 km/h (5 Bft) 92,00 %
20.03.2017 00:02 12,1 C 82 % 1009,4 hPa 0,0 l/m 19,6 km/h (3 Bft) SW 232 0 min 0,000 mm 0,0 UV-I 0 W/m 9,1 C 6,1 C 25,7 km/h (4 Bft) 97,06 %
20.03.2017 00:04 12,1 C 82 % 1009,4 hPa 0,0 l/m 20,7 km/h (4 Bft) W-SW 242 0 min 0,000 mm 0,0 UV-I 0 W/m 9,1 C 5,8 C 27,4 km/h (4 Bft) 98,31 %
20.03.2017 00:06 12,0 C 82 % 1009,4 hPa 0,0 l/m 19,7 km/h (3 Bft) SW 232 0 min 0,000 mm 0,0 UV-I 0 W/m 9,0 C 6,0 C 29,0 km/h (5 Bft) 94,74 %
20.03.2017 00:08 12,0 C 82 % 1009,3 hPa 0,0 l/m 18,0 km/h (3 Bft) W 277 0 min 0,000 mm 0,0 UV-I 0 W/m 9,0 C 6,5 C 27,4 km/h (4 Bft) 100,00 %
20.03.2017 00:10 12,0 C 82 % 1009,4 hPa 0,0 l/m 20,5 km/h (4 Bft) SW 232 0 min 0,000 mm 0,0 UV-I 0 W/m 9,0 C 5,7 C 38,6 km/h (5 Bft) 97,14 %
20.03.2017 00:12 12,0 C 82 % 1009,4 hPa 0,0 l/m 22,0 km/h (4 Bft) W 263 0 min 0,000 mm 0,0 UV-I 0 W/m 9,0 C 5,3 C 27,4 km/h (4 Bft) 96,23 %
20.03.2017 00:14 12,0 C 81 % 1009,4 hPa 0,0 l/m 21,4 km/h (4 Bft) W 265 0 min 0,000 mm 0,0 UV-I 0 W/m 8,8 C 5,5 C 29,0 km/h (5 Bft) 98,00 %
20.03.2017 00:16 12,0 C 81 % 1009,4 hPa 0,0 l/m 17,4 km/h (3 Bft) W 267 0 min 0,000 mm 0,0 UV-I 0 W/m 8,8 C 6,7 C 30,6 km/h (5 Bft) 92,11 %
20.03.2017 00:18 11,9 C 81 % 1009,4 hPa 0,0 l/m 16,7 km/h (3 Bft) SW 233 0 min 0,000 mm 0,0 UV-I 0 W/m 8,7 C 6,8 C 25,7 km/h (4 Bft) 97,92 %
20.03.2017 00:20 11,9 C 81 % 1009,4 hPa 0,0 l/m 19,6 km/h (3 Bft) W-SW 245 0 min 0,000 mm 0,0 UV-I 0 W/m 8,7 C 5,9 C 29,0 km/h (5 Bft) 97,56 %
20.03.2017 00:22 11,9 C 81 % 1009,5 hPa 0,0 l/m 19,0 km/h (3 Bft) SW 230 0 min 0,000 mm 0,0 UV-I 0 W/m 8,7 C 6,0 C 25,7 km/h (4 Bft) 96,23 %
20.03.2017 00:24 12,0 C 81 % 1009,5 hPa 0,0 l/m 18,5 km/h (3 Bft) W-SW 253 0 min 0,000 mm 0,0 UV-I 0 W/m 8,8 C 6,3 C 27,4 km/h (4 Bft) 88,89 %
20.03.2017 00:26 11,9 C 81 % 1009,5 hPa 0,0 l/m 18,3 km/h (3 Bft) SW 221 0 min 0,000 mm 0,0 UV-I 0 W/m 8,7 C 6,3 C 24,1 km/h (4 Bft) 96,08 %
20.03.2017 00:28 11,9 C 81 % 1009,5 hPa 0,0 l/m 19,4 km/h (3 Bft) W-SW 255 0 min 0,000 mm 0,0 UV-I 0 W/m 8,7 C 5,9 C 27,4 km/h (4 Bft) 100,00 %
20.03.2017 00:30 11,9 C 81 % 1009,5 hPa 0,0 l/m 20,4 km/h (4 Bft) W-SW 248 0 min 0,000 mm 0,0 UV-I 0 W/m 8,7 C 5,6 C 27,4 km/h (4 Bft) 98,11 %
20.03.2017 00:32 11,9 C 81 % 1009,6 hPa 0,0 l/m 19,9 km/h (4 Bft) W 264 0 min 0,000 mm 0,0 UV-I 0 W/m 8,7 C 5,8 C 27,4 km/h (4 Bft) 97,62 %
20.03.2017 00:34 11,9 C 81 % 1009,6 hPa 0,0 l/m 19,2 km/h (3 Bft) SW 223 0 min 0,000 mm 0,0 UV-I 0 W/m 8,7 C 6,0 C 24,1 km/h (4 Bft) 95,45 %
20.03.2017 00:36 11,9 C 80 % 1009,7 hPa 0,0 l/m 20,1 km/h (4 Bft) W-SW 248 0 min 0,000 mm 0,0 UV-I 0 W/m 8,6 C 5,7 C 27,4 km/h (4 Bft) 96,43 %
20.03.2017 00:38 11,9 C 80 % 1009,6 hPa 0,0 l/m 21,4 km/h (4 Bft) W 268 0 min 0,000 mm 0,0 UV-I 0 W/m 8,6 C 5,3 C 32,2 km/h (5 Bft) 97,56 %
20.03.2017 00:40 11,9 C 80 % 1009,7 hPa 0,0 l/m 20,3 km/h (4 Bft) W-SW 245 0 min 0,000 mm 0,0 UV-I 0 W/m 8,6 C 5,7 C 32,2 km/h (5 Bft) 96,23 %
20.03.2017 00:42 11,9 C 80 % 1009,7 hPa 0,0 l/m 24,1 km/h (4 Bft) W-SW 246 0 min 0,000 mm 0,0 UV-I 0 W/m 8,6 C 4,6 C 32,2 km/h (5 Bft) 97,37 %
20.03.2017 00:44 12,0 C 80 % 1009,7 hPa 0,0 l/m 21,8 km/h (4 Bft) W-NW 291 0 min 0,000 mm 0,0 UV-I 0 W/m 8,7 C 5,4 C 35,4 km/h (5 Bft) 98,11 %
20.03.2017 00:46 12,1 C 80 % 1009,7 hPa 0,0 l/m 19,6 km/h (3 Bft) W-SW 240 0 min 0,000 mm 0,0 UV-I 0 W/m 8,8 C 6,1 C 25,7 km/h (4 Bft) 97,37 %
20.03.2017 00:48 12,0 C 80 % 1009,7 hPa 0,0 l/m 19,4 km/h (3 Bft) W-SW 245 0 min 0,000 mm 0,0 UV-I 0 W/m 8,7 C 6,1 C 30,6 km/h (5 Bft) 98,21 %
20.03.2017 00:50 12,0 C 80 % 1009,7 hPa 0,0 l/m 20,5 km/h (4 Bft) W 259 0 min 0,000 mm 0,0 UV-I 0 W/m 8,7 C 5,7 C 30,6 km/h (5 Bft) 97,56 %
20.03.2017 00:52 12,1 C 80 % 1009,7 hPa 0,0 l/m 22,7 km/h (4 Bft) W-SW 254 0 min 0,000 mm 0,0 UV-I 0 W/m 8,8 C 5,2 C 37,0 km/h (5 Bft) 97,56 %
20.03.2017 00:54 12,1 C 80 % 1009,8 hPa 0,0 l/m 17,7 km/h (3 Bft) W-SW 252 0 min 0,000 mm 0,0 UV-I 0 W/m 8,8 C 6,7 C 25,7 km/h (4 Bft) 94,34 %
20.03.2017 00:56 12,1 C 79 % 1009,7 hPa 0,0 l/m 19,6 km/h (3 Bft) W 273 0 min 0,000 mm 0,0 UV-I 0 W/m 8,6 C 6,1 C 25,7 km/h (4 Bft) 94,34 %
20.03.2017 00:58 12,1 C 79 % 1009,7 hPa 0,0 l/m 19,4 km/h (3 Bft) W 265 0 min 0,000 mm 0,0 UV-I 0 W/m 8,6 C 6,2 C 32,2 km/h (5 Bft) 97,37 %
20.03.2017 01:00 12,2 C 79 % 1009,7 hPa 0,0 l/m 20,8 km/h (4 Bft) W-SW 237 0 min 0,051 mm 0,0 UV-I 0 W/m 8,7 C 5,9 C 32,2 km/h (5 Bft) 94,64 %
20.03.2017 01:02 12,2 C 79 % 1009,8 hPa 0,0 l/m 15,8 km/h (3 Bft) SW 226 0 min 0,000 mm 0,0 UV-I 0 W/m 8,7 C 7,5 C 22,5 km/h (4 Bft) 95,45 %
20.03.2017 01:04 12,2 C 79 % 1009,8 hPa 0,0 l/m 18,7 km/h (3 Bft) W-SW 239 0 min 0,000 mm 0,0 UV-I 0 W/m 8,7 C 6,5 C 29,0 km/h (5 Bft) 97,56 %
20.03.2017 01:06 12,2 C 79 % 1009,8 hPa 0,0 l/m 19,6 km/h (3 Bft) W 263 0 min 0,000 mm 0,0 UV-I 0 W/m 8,7 C 6,2 C 25,7 km/h (4 Bft) 94,34 %
20.03.2017 01:08 12,2 C 79 % 1009,8 hPa 0,0 l/m 20,3 km/h (4 Bft) W 269 0 min 0,000 mm 0,0 UV-I 0 W/m 8,7 C 6,0 C 30,6 km/h (5 Bft) 93,18 %
20.03.2017 01:10 12,2 C 79 % 1009,7 hPa 0,0 l/m 22,3 km/h (4 Bft) W-SW 248 0 min 0,000 mm 0,0 UV-I 0 W/m 8,7 C 5,5 C 30,6 km/h (5 Bft) 94,34 %
20.03.2017 01:12 12,3 C 79 % 1009,7 hPa 0,0 l/m 19,1 km/h (3 Bft) SW 234 0 min 0,000 mm 0,0 UV-I 0 W/m 8,8 C 6,5 C 25,7 km/h (4 Bft) 95,45 %
20.03.2017 01:14 12,3 C 78 % 1009,8 hPa 0,0 l/m 21,6 km/h (4 Bft) W-SW 251 0 min 0,000 mm 0,0 UV-I 0 W/m 8,6 C 5,8 C 30,6 km/h (5 Bft) 94,87 %
20.03.2017 01:16 12,3 C 78 % 1009,8 hPa 0,0 l/m 19,8 km/h (3 Bft) W-SW 257 0 min 0,000 mm 0,0 UV-I 0 W/m 8,6 C 6,3 C 29,0 km/h (5 Bft) 94,34 %
20.03.2017 01:18 12,3 C 78 % 1009,8 hPa 0,0 l/m 18,7 km/h (3 Bft) W 281 0 min 0,000 mm 0,0 UV-I 0 W/m 8,6 C 6,7 C 29,0 km/h (5 Bft) 98,00 %
20.03.2017 01:20 12,3 C 78 % 1009,8 hPa 0,0 l/m 19,6 km/h (3 Bft) W 265 0 min 0,000 mm 0,0 UV-I 0 W/m 8,6 C 6,4 C 30,6 km/h (5 Bft) 94,74 %
20.03.2017 01:22 12,3 C 78 % 1009,8 hPa 0,0 l/m 22,8 km/h (4 Bft) W 267 0 min 0,000 mm 0,0 UV-I 0 W/m 8,6 C 5,5 C 33,8 km/h (5 Bft) 98,11 %
20.03.2017 01:24 12,3 C 78 % 1009,8 hPa 0,0 l/m 20,8 km/h (4 Bft) W-SW 243 0 min 0,000 mm 0,0 UV-I 0 W/m 8,6 C 6,0 C 27,4 km/h (4 Bft) 92,11 %
20.03.2017 01:26 12,3 C 78 % 1009,8 hPa 0,0 l/m 20,1 km/h (4 Bft) W 277 0 min 0,000 mm 0,0 UV-I 0 W/m 8,6 C 6,2 C 29,0 km/h (5 Bft) 94,34 %
20.03.2017 01:28 12,3 C 78 % 1009,9 hPa 0,0 l/m 18,4 km/h (3 Bft) SW 229 0 min 0,000 mm 0,0 UV-I 0 W/m 8,6 C 6,7 C 25,7 km/h (4 Bft) 97,14 %
20.03.2017 01:30 12,3 C 78 % 1009,9 hPa 0,0 l/m 22,4 km/h (4 Bft) W-SW 257 0 min 0,000 mm 0,0 UV-I 0 W/m 8,6 C 5,6 C 33,8 km/h (5 Bft) 96,23 %
20.03.2017 01:32 12,3 C 78 % 1009,9 hPa 0,0 l/m 22,2 km/h (4 Bft) W 263 0 min 0,000 mm 0,0 UV-I 0 W/m 8,6 C 5,6 C 32,2 km/h (5 Bft) 100,00 %
20.03.2017 01:34 12,3 C 78 % 1009,9 hPa 0,0 l/m 19,8 km/h (3 Bft) W 265 0 min 0,000 mm 0,0 UV-I 0 W/m 8,6 C 6,3 C 27,4 km/h (4 Bft) 95,12 %
20.03.2017 01:36 12,3 C 78 % 1009,9 hPa 0,0 l/m 20,8 km/h (4 Bft) SW 234 0 min 0,000 mm 0,0 UV-I 0 W/m 8,6 C 6,0 C 29,0 km/h (5 Bft) 98,00 %
20.03.2017 01:38 12,3 C 77 % 1009,9 hPa 0,0 l/m 23,8 km/h (4 Bft) W-SW 248 0 min 0,000 mm 0,0 UV-I 0 W/m 8,4 C 5,2 C 37,0 km/h (5 Bft) 94,74 %
20.03.2017 01:40 12,3 C 77 % 1009,9 hPa 0,0 l/m 22,3 km/h (4 Bft) W-SW 239 0 min 0,000 mm 0,0 UV-I 0 W/m 8,4 C 5,6 C 29,0 km/h (5 Bft) 93,62 %
20.03.2017 01:42 12,3 C 77 % 1009,9 hPa 0,0 l/m 22,2 km/h (4 Bft) W 267 0 min 0,000 mm 0,0 UV-I 0 W/m 8,4 C 5,6 C 40,2 km/h (6 Bft) 92,00 %
20.03.2017 01:44 12,3 C 77 % 1009,9 hPa 0,0 l/m 15,8 km/h (3 Bft) W-SW 255 0 min 0,000 mm 0,0 UV-I 0 W/m 8,4 C 7,6 C 22,5 km/h (4 Bft) 95,74 %
20.03.2017 01:46 12,3 C 77 % 1009,9 hPa 0,0 l/m 22,7 km/h (4 Bft) W 268 0 min 0,000 mm 0,0 UV-I 0 W/m 8,4 C 5,5 C 38,6 km/h (5 Bft) 94,34 %
20.03.2017 01:48 12,3 C 77 % 1009,9 hPa 0,0 l/m 22,7 km/h (4 Bft) W-SW 241 0 min 0,000 mm 0,0 UV-I 0 W/m 8,4 C 5,5 C 38,6 km/h (5 Bft) 94,87 %
20.03.2017 01:50 12,3 C 77 % 1010,0 hPa 0,0 l/m 23,0 km/h (4 Bft) W 267 0 min 0,000 mm 0,0 UV-I 0 W/m 8,4 C 5,4 C 35,4 km/h (5 Bft) 94,55 %
20.03.2017 01:52 12,3 C 76 % 1010,1 hPa 0,0 l/m 23,6 km/h (4 Bft) W 263 0 min 0,000 mm 0,0 UV-I 0 W/m 8,2 C 5,3 C 33,8 km/h (5 Bft) 92,31 %
20.03.2017 01:54 12,3 C 76 % 1010,2 hPa 0,0 l/m 19,3 km/h (3 Bft) W 263 0 min 0,000 mm 0,0 UV-I 0 W/m 8,2 C 6,5 C 29,0 km/h (5 Bft) 96,00 %
20.03.2017 01:56 12,3 C 77 % 1010,2 hPa 0,0 l/m 20,4 km/h (4 Bft) W 269 0 min 0,000 mm 0,0 UV-I 0 W/m 8,4 C 6,1 C 32,2 km/h (5 Bft) 90,24 %
20.03.2017 01:58 12,3 C 77 % 1010,2 hPa 0,0 l/m 19,6 km/h (3 Bft) W-SW 250 0 min 0,000 mm 0,0 UV-I 0 W/m 8,4 C 6,4 C 30,6 km/h (5 Bft) 92,68 %
20.03.2017 02:00 12,3 C 77 % 1010,2 hPa 0,0 l/m 22,1 km/h (4 Bft) W-SW 244 0 min 0,051 mm 0,0 UV-I 0 W/m 8,4 C 5,7 C 35,4 km/h (5 Bft) 90,77 %
20.03.2017 02:02 12,3 C 77 % 1010,2 hPa 0,0 l/m 19,6 km/h (3 Bft) W 263 0 min 0,000 mm 0,0 UV-I 0 W/m 8,4 C 6,4 C 25,7 km/h (4 Bft) 94,29 %
20.03.2017 02:04 12,2 C 77 % 1010,3 hPa 0,0 l/m 21,8 km/h (4 Bft) W 259 0 min 0,000 mm 0,0 UV-I 0 W/m 8,3 C 5,6 C 33,8 km/h (5 Bft) 92,86 %
20.03.2017 02:06 12,2 C 77 % 1010,3 hPa 0,0 l/m 22,2 km/h (4 Bft) W-SW 257 0 min 0,000 mm 0,0 UV-I 0 W/m 8,3 C 5,5 C 32,2 km/h (5 Bft) 94,74 %
20.03.2017 02:08 12,2 C 77 % 1010,4 hPa 0,0 l/m 21,0 km/h (4 Bft) W 263 0 min 0,000 mm 0,0 UV-I 0 W/m 8,3 C 5,8 C 27,4 km/h (4 Bft) 96,00 %
20.03.2017 02:10 12,2 C 77 % 1010,3 hPa 0,0 l/m 22,1 km/h (4 Bft) W-SW 257 0 min 0,000 mm 0,0 UV-I 0 W/m 8,3 C 5,5 C 29,0 km/h (5 Bft) 95,45 %
20.03.2017 02:12 12,2 C 77 % 1010,3 hPa 0,0 l/m 18,4 km/h (3 Bft) W-NW 282 0 min 0,000 mm 0,0 UV-I 0 W/m 8,3 C 6,6 C 25,7 km/h (4 Bft) 96,00 %
20.03.2017 02:14 12,2 C 78 % 1010,3 hPa 0,0 l/m 18,8 km/h (3 Bft) NW 316 0 min 0,000 mm 0,0 UV-I 0 W/m 8,5 C 6,5 C 29,0 km/h (5 Bft) 100,00 %
20.03.2017 02:16 12,1 C 78 % 1010,4 hPa 0,0 l/m 19,2 km/h (3 Bft) W 259 0 min 0,000 mm 0,0 UV-I 0 W/m 8,4 C 6,2 C 29,0 km/h (5 Bft) 97,56 %
20.03.2017 02:18 12,1 C 78 % 1010,5 hPa 0,0 l/m 17,9 km/h (3 Bft) W 266 0 min 0,000 mm 0,0 UV-I 0 W/m 8,4 C 6,7 C 29,0 km/h (5 Bft) 100,00 %
20.03.2017 02:20 12,1 C 78 % 1010,3 hPa 0,0 l/m 17,9 km/h (3 Bft) W-SW 254 0 min 0,000 mm 0,0 UV-I 0 W/m 8,4 C 6,7 C 29,0 km/h (5 Bft) 97,73 %
20.03.2017 02:22 12,1 C 78 % 1010,4 hPa 0,0 l/m 22,2 km/h (4 Bft) W-SW 238 0 min 0,000 mm 0,0 UV-I 0 W/m 8,4 C 5,4 C 35,4 km/h (5 Bft) 100,00 %
20.03.2017 02:24 12,1 C 78 % 1010,4 hPa 0,0 l/m 20,8 km/h (4 Bft) W-SW 256 0 min 0,000 mm 0,0 UV-I 0 W/m 8,4 C 5,8 C 29,0 km/h (5 Bft) 100,00 %
20.03.2017 02:26 12,1 C 78 % 1010,4 hPa 0,0 l/m 17,6 km/h (3 Bft) W-SW 254 0 min 0,000 mm 0,0 UV-I 0 W/m 8,4 C 6,8 C 22,5 km/h (4 Bft) 100,00 %
20.03.2017 02:28 12,0 C 79 % 1010,5 hPa 0,0 l/m 17,9 km/h (3 Bft) W 264 0 min 0,000 mm 0,0 UV-I 0 W/m 8,5 C 6,5 C 30,6 km/h (5 Bft) 96,43 %
20.03.2017 02:30 12,0 C 78 % 1010,5 hPa 0,0 l/m 21,0 km/h (4 Bft) W-SW 253 0 min 0,000 mm 0,0 UV-I 0 W/m 8,3 C 5,6 C 35,4 km/h (5 Bft) 100,00 %
20.03.2017 02:32 12,0 C 79 % 1010,4 hPa 0,0 l/m 18,4 km/h (3 Bft) W 268 0 min 0,000 mm 0,0 UV-I 0 W/m 8,5 C 6,4 C 30,6 km/h (5 Bft) 97,56 %
20.03.2017 02:34 12,0 C 79 % 1010,4 hPa 0,0 l/m 20,5 km/h (4 Bft) W 267 0 min 0,000 mm 0,0 UV-I 0 W/m 8,5 C 5,7 C 29,0 km/h (5 Bft) 98,31 %
20.03.2017 02:36 12,0 C 79 % 1010,4 hPa 0,0 l/m 16,7 km/h (3 Bft) W 273 0 min 0,000 mm 0,0 UV-I 0 W/m 8,5 C 6,9 C 27,4 km/h (4 Bft) 95,12 %
20.03.2017 02:38 12,0 C 79 % 1010,4 hPa 0,0 l/m 15,3 km/h (3 Bft) W-SW 254 0 min 0,000 mm 0,0 UV-I 0 W/m 8,5 C 7,4 C 27,4 km/h (4 Bft) 97,56 %
20.03.2017 02:40 11,9 C 79 % 1010,4 hPa 0,0 l/m 15,5 km/h (3 Bft) W-NW 296 0 min 0,000 mm 0,0 UV-I 0 W/m 8,4 C 7,2 C 25,7 km/h (4 Bft) 98,21 %
20.03.2017 02:42 11,9 C 79 % 1010,4 hPa 0,0 l/m 15,0 km/h (3 Bft) W-SW 250 0 min 0,000 mm 0,0 UV-I 0 W/m 8,4 C 7,4 C 22,5 km/h (4 Bft) 97,87 %
20.03.2017 02:44 11,9 C 79 % 1010,3 hPa 0,0 l/m 16,6 km/h (3 Bft) W 270 0 min 0,000 mm 0,0 UV-I 0 W/m 8,4 C 6,8 C 24,1 km/h (4 Bft) 100,00 %
20.03.2017 02:46 11,9 C 79 % 1010,3 hPa 0,0 l/m 11,6 km/h (2 Bft) W-SW 258 0 min 0,000 mm 0,0 UV-I 0 W/m 8,4 C 8,9 C 17,7 km/h (3 Bft) 98,11 %
20.03.2017 02:48 11,9 C 79 % 1010,4 hPa 0,0 l/m 16,2 km/h (3 Bft) W-SW 257 0 min 0,000 mm 0,0 UV-I 0 W/m 8,4 C 7,0 C 27,4 km/h (4 Bft) 97,73 %
20.03.2017 02:50 11,8 C 79 % 1010,4 hPa 0,0 l/m 15,9 km/h (3 Bft) W-SW 244 0 min 0,000 mm 0,0 UV-I 0 W/m 8,3 C 7,0 C 27,4 km/h (4 Bft) 100,00 %
20.03.2017 02:52 11,8 C 79 % 1010,4 hPa 0,0 l/m 16,7 km/h (3 Bft) W-SW 252 0 min 0,000 mm 0,0 UV-I 0 W/m 8,3 C 6,7 C 24,1 km/h (4 Bft) 98,00 %
20.03.2017 02:54 11,8 C 80 % 1010,5 hPa 0,0 l/m 15,9 km/h (3 Bft) W 267 0 min 0,000 mm 0,0 UV-I 0 W/m 8,5 C 7,0 C 20,9 km/h (4 Bft) 100,00 %
20.03.2017 02:56 11,8 C 80 % 1010,5 hPa 0,0 l/m 12,0 km/h (2 Bft) W 277 0 min 0,000 mm 0,0 UV-I 0 W/m 8,5 C 8,6 C 17,7 km/h (3 Bft) 95,12 %
20.03.2017 02:58 11,7 C 80 % 1010,4 hPa 0,0 l/m 13,8 km/h (3 Bft) W-SW 246 0 min 0,000 mm 0,0 UV-I 0 W/m 8,4 C 7,7 C 20,9 km/h (4 Bft) 98,21 %
20.03.2017 03:00 11,7 C 80 % 1010,4 hPa 0,0 l/m 12,6 km/h (3 Bft) W-SW 256 0 min 0,050 mm 0,0 UV-I 0 W/m 8,4 C 8,2 C 20,9 km/h (4 Bft) 97,37 %
20.03.2017 03:02 11,7 C 80 % 1010,5 hPa 0,0 l/m 13,0 km/h (3 Bft) W-SW 257 0 min 0,000 mm 0,0 UV-I 0 W/m 8,4 C 8,0 C 19,3 km/h (3 Bft) 97,62 %
20.03.2017 03:04 11,7 C 81 % 1010,6 hPa 0,0 l/m 12,8 km/h (3 Bft) W 279 0 min 0,000 mm 0,0 UV-I 0 W/m 8,5 C 8,1 C 16,1 km/h (3 Bft) 100,00 %
20.03.2017 03:06 11,6 C 81 % 1010,6 hPa 0,0 l/m 14,7 km/h (3 Bft) W 273 0 min 0,000 mm 0,0 UV-I 0 W/m 8,5 C 7,2 C 24,1 km/h (4 Bft) 97,87 %
20.03.2017 03:08 11,6 C 81 % 1010,6 hPa 0,0 l/m 14,5 km/h (3 Bft) W-SW 255 0 min 0,000 mm 0,0 UV-I 0 W/m 8,5 C 7,3 C 19,3 km/h (3 Bft) 100,00 %
20.03.2017 03:10 11,6 C 81 % 1010,6 hPa 0,0 l/m 14,6 km/h (3 Bft) W 267 0 min 0,000 mm 0,0 UV-I 0 W/m 8,5 C 7,2 C 24,1 km/h (4 Bft) 96,43 %
20.03.2017 03:12 11,6 C 81 % 1010,6 hPa 0,0 l/m 19,0 km/h (3 Bft) W-NW 286 0 min 0,000 mm 0,0 UV-I 0 W/m 8,5 C 5,7 C 30,6 km/h (5 Bft) 100,00 %
20.03.2017 03:14 11,6 C 81 % 1010,6 hPa 0,0 l/m 16,9 km/h (3 Bft) W-NW 284 0 min 0,000 mm 0,0 UV-I 0 W/m 8,5 C 6,4 C 24,1 km/h (4 Bft) 100,00 %
20.03.2017 03:16 11,6 C 81 % 1010,6 hPa 0,0 l/m 18,2 km/h (3 Bft) W 273 0 min 0,000 mm 0,0 UV-I 0 W/m 8,5 C 5,9 C 30,6 km/h (5 Bft) 100,00 %
20.03.2017 03:18 11,6 C 81 % 1010,6 hPa 0,0 l/m 18,2 km/h (3 Bft) W-SW 258 0 min 0,000 mm 0,0 UV-I 0 W/m 8,5 C 5,9 C 32,2 km/h (5 Bft) 100,00 %
20.03.2017 03:20 11,6 C 80 % 1010,6 hPa 0,0 l/m 23,2 km/h (4 Bft) W-SW 245 0 min 0,000 mm 0,0 UV-I 0 W/m 8,3 C 4,5 C 38,6 km/h (5 Bft) 100,00 %
20.03.2017 03:22 11,6 C 80 % 1010,6 hPa 0,0 l/m 17,5 km/h (3 Bft) W 279 0 min 0,000 mm 0,0 UV-I 0 W/m 8,3 C 6,2 C 32,2 km/h (5 Bft) 97,87 %
20.03.2017 03:24 11,6 C 80 % 1010,6 hPa 0,0 l/m 13,6 km/h (3 Bft) W-NW 286 0 min 0,000 mm 0,0 UV-I 0 W/m 8,3 C 7,6 C 20,9 km/h (4 Bft) 98,11 %
20.03.2017 03:26 11,6 C 80 % 1010,6 hPa 0,0 l/m 14,8 km/h (3 Bft) W 263 0 min 0,000 mm 0,0 UV-I 0 W/m 8,3 C 7,2 C 19,3 km/h (3 Bft) 100,00 %
20.03.2017 03:28 11,6 C 80 % 1010,6 hPa 0,0 l/m 17,2 km/h (3 Bft) W 273 0 min 0,000 mm 0,0 UV-I 0 W/m 8,3 C 6,3 C 29,0 km/h (5 Bft) 96,23 %
20.03.2017 03:30 11,6 C 80 % 1010,7 hPa 0,0 l/m 19,1 km/h (3 Bft) W-NW 292 0 min 0,000 mm 0,0 UV-I 0 W/m 8,3 C 5,6 C 27,4 km/h (4 Bft) 97,56 %
20.03.2017 03:32 11,6 C 80 % 1010,7 hPa 0,0 l/m 18,0 km/h (3 Bft) W 262 0 min 0,000 mm 0,0 UV-I 0 W/m 8,3 C 6,0 C 30,6 km/h (5 Bft) 96,43 %
20.03.2017 03:34 11,5 C 81 % 1010,7 hPa 0,0 l/m 15,8 km/h (3 Bft) W-SW 254 0 min 0,000 mm 0,0 UV-I 0 W/m 8,4 C 6,6 C 22,5 km/h (4 Bft) 100,00 %
20.03.2017 03:36 11,4 C 81 % 1010,7 hPa 0,0 l/m 16,4 km/h (3 Bft) W-NW 286 0 min 0,000 mm 0,0 UV-I 0 W/m 8,3 C 6,3 C 24,1 km/h (4 Bft) 97,37 %
20.03.2017 03:38 11,4 C 82 % 1010,6 hPa 0,0 l/m 18,2 km/h (3 Bft) W-SW 250 0 min 0,000 mm 0,0 UV-I 0 W/m 8,4 C 5,7 C 32,2 km/h (5 Bft) 96,43 %
20.03.2017 03:40 11,3 C 82 % 1010,8 hPa 0,0 l/m 17,4 km/h (3 Bft) W 277 0 min 0,000 mm 0,0 UV-I 0 W/m 8,3 C 5,8 C 27,4 km/h (4 Bft) 97,56 %
20.03.2017 03:42 11,3 C 82 % 1010,8 hPa 0,0 l/m 15,4 km/h (3 Bft) W-SW 240 0 min 0,000 mm 0,0 UV-I 0 W/m 8,3 C 6,6 C 32,2 km/h (5 Bft) 96,23 %
20.03.2017 03:44 11,2 C 83 % 1010,9 hPa 0,0 l/m 21,0 km/h (4 Bft) W-SW 252 0 min 0,000 mm 0,0 UV-I 0 W/m 8,4 C 4,5 C 33,8 km/h (5 Bft) 97,56 %
20.03.2017 03:46 11,1 C 84 % 1010,8 hPa 0,0 l/m 15,0 km/h (3 Bft) W 262 0 min 0,000 mm 0,0 UV-I 0 W/m 8,5 C 6,5 C 24,1 km/h (4 Bft) 95,56 %
20.03.2017 03:48 11,0 C 84 % 1010,9 hPa 0,0 l/m 17,0 km/h (3 Bft) W-SW 238 0 min 0,000 mm 0,0 UV-I 0 W/m 8,4 C 5,6 C 24,1 km/h (4 Bft) 96,15 %
20.03.2017 03:50 10,9 C 85 % 1010,9 hPa 0,0 l/m 22,1 km/h (4 Bft) W 266 0 min 0,000 mm 0,0 UV-I 0 W/m 8,5 C 3,8 C 30,6 km/h (5 Bft) 97,62 %
20.03.2017 03:52 10,9 C 85 % 1010,9 hPa 0,0 l/m 19,7 km/h (3 Bft) W 266 0 min 0,000 mm 0,0 UV-I 0 W/m 8,5 C 4,5 C 33,8 km/h (5 Bft) 95,74 %
20.03.2017 03:54 10,8 C 86 % 1011,0 hPa 0,0 l/m 13,5 km/h (3 Bft) W-SW 256 0 min 0,000 mm 0,0 UV-I 0 W/m 8,6 C 6,7 C 19,3 km/h (3 Bft) 98,00 %
20.03.2017 03:56 10,7 C 86 % 1011,0 hPa 0,0 l/m 22,2 km/h (4 Bft) W-SW 250 0 min 0,000 mm 0,0 UV-I 0 W/m 8,5 C 3,5 C 32,2 km/h (5 Bft) 93,18 %
20.03.2017 03:58 10,7 C 86 % 1011,1 hPa 0,0 l/m 13,2 km/h (3 Bft) W-SW 254 0 min 0,000 mm 0,0 UV-I 0 W/m 8,5 C 6,8 C 16,1 km/h (3 Bft) 95,45 %
20.03.2017 04:00 10,7 C 87 % 1011,1 hPa 0,0 l/m 18,1 km/h (3 Bft) W-SW 255 0 min 0,026 mm 0,0 UV-I 0 W/m 8,6 C 4,8 C 24,1 km/h (4 Bft) 100,00 %
20.03.2017 04:02 10,6 C 87 % 1011,1 hPa 0,0 l/m 16,3 km/h (3 Bft) W 271 0 min 0,000 mm 0,0 UV-I 0 W/m 8,5 C 5,3 C 19,3 km/h (3 Bft) 100,00 %
20.03.2017 04:04 10,6 C 87 % 1011,1 hPa 0,0 l/m 19,0 km/h (3 Bft) W 262 0 min 0,000 mm 0,0 UV-I 0 W/m 8,5 C 4,4 C 35,4 km/h (5 Bft) 98,00 %
20.03.2017 04:06 10,5 C 87 % 1011,0 hPa 0,0 l/m 18,3 km/h (3 Bft) W 269 0 min 0,000 mm 0,0 UV-I 0 W/m 8,4 C 4,5 C 29,0 km/h (5 Bft) 97,87 %
20.03.2017 04:08 10,4 C 88 % 1011,1 hPa 0,0 l/m 18,0 km/h (3 Bft) W-SW 246 0 min 0,000 mm 0,0 UV-I 0 W/m 8,5 C 4,5 C 33,8 km/h (5 Bft) 98,00 %
20.03.2017 04:10 10,4 C 88 % 1011,1 hPa 0,0 l/m 15,9 km/h (3 Bft) W-SW 245 0 min 0,000 mm 0,0 UV-I 0 W/m 8,5 C 5,3 C 24,1 km/h (4 Bft) 97,37 %
20.03.2017 04:12 10,4 C 88 % 1011,1 hPa 0,0 l/m 18,1 km/h (3 Bft) W-SW 257 0 min 0,000 mm 0,0 UV-I 0 W/m 8,5 C 4,4 C 25,7 km/h (4 Bft) 98,21 %
20.03.2017 04:14 10,3 C 89 % 1011,2 hPa 0,0 l/m 16,5 km/h (3 Bft) W-SW 252 0 min 0,000 mm 0,0 UV-I 0 W/m 8,6 C 4,9 C 25,7 km/h (4 Bft) 98,00 %
20.03.2017 04:16 10,3 C 89 % 1011,2 hPa 0,0 l/m 16,4 km/h (3 Bft) W-SW 252 0 min 0,000 mm 0,0 UV-I 0 W/m 8,6 C 4,9 C 22,5 km/h (4 Bft) 95,74 %
20.03.2017 04:18 10,2 C 89 % 1011,2 hPa 0,0 l/m 12,1 km/h (2 Bft) W-SW 242 0 min 0,000 mm 0,0 UV-I 0 W/m 8,5 C 6,7 C 16,1 km/h (3 Bft) 100,00 %
20.03.2017 04:20 10,2 C 89 % 1011,1 hPa 0,0 l/m 12,6 km/h (3 Bft) W-SW 240 0 min 0,000 mm 0,0 UV-I 0 W/m 8,5 C 6,5 C 22,5 km/h (4 Bft) 96,23 %
20.03.2017 04:22 10,2 C 90 % 1011,1 hPa 0,0 l/m 17,7 km/h (3 Bft) W-SW 248 0 min 0,000 mm 0,0 UV-I 0 W/m 8,6 C 4,3 C 25,7 km/h (4 Bft) 100,00 %
20.03.2017 04:24 10,1 C 90 % 1011,2 hPa 0,0 l/m 17,0 km/h (3 Bft) W-SW 248 0 min 0,000 mm 0,0 UV-I 0 W/m 8,5 C 4,5 C 19,3 km/h (3 Bft) 97,62 %
20.03.2017 04:26 10,1 C 90 % 1011,1 hPa 0,0 l/m 13,5 km/h (3 Bft) W-SW 256 0 min 0,000 mm 0,0 UV-I 0 W/m 8,5 C 5,9 C 19,3 km/h (3 Bft) 100,00 %
20.03.2017 04:28 10,1 C 90 % 1011,2 hPa 0,0 l/m 16,1 km/h (3 Bft) W-SW 243 0 min 0,000 mm 0,0 UV-I 0 W/m 8,5 C 4,8 C 20,9 km/h (4 Bft) 97,78 %
20.03.2017 04:30 10,0 C 90 % 1011,3 hPa 0,0 l/m 12,8 km/h (3 Bft) W 261 0 min 0,000 mm 0,0 UV-I 0 W/m 8,4 C 6,1 C 17,7 km/h (3 Bft) 100,00 %
20.03.2017 04:32 10,0 C 91 % 1011,3 hPa 0,0 l/m 14,0 km/h (3 Bft) S-SW 205 0 min 0,000 mm 0,0 UV-I 0 W/m 8,6 C 5,6 C 24,1 km/h (4 Bft) 98,11 %
20.03.2017 04:34 10,0 C 91 % 1011,2 hPa 0,0 l/m 14,5 km/h (3 Bft) W-SW 257 0 min 0,000 mm 0,0 UV-I 0 W/m 8,6 C 5,3 C 25,7 km/h (4 Bft) 96,23 %
20.03.2017 04:36 9,9 C 91 % 1011,2 hPa 0,0 l/m 14,7 km/h (3 Bft) SW 236 0 min 0,000 mm 0,0 UV-I 0 W/m 8,5 C 5,1 C 22,5 km/h (4 Bft) 100,00 %
20.03.2017 04:38 9,9 C 91 % 1011,3 hPa 0,0 l/m 14,6 km/h (3 Bft) W-SW 252 0 min 0,000 mm 0,0 UV-I 0 W/m 8,5 C 5,2 C 22,5 km/h (4 Bft) 97,56 %
20.03.2017 04:40 9,9 C 91 % 1011,3 hPa 0,0 l/m 15,2 km/h (3 Bft) W-SW 257 0 min 0,000 mm 0,0 UV-I 0 W/m 8,5 C 4,9 C 24,1 km/h (4 Bft) 94,64 %
20.03.2017 04:42 9,9 C 91 % 1011,3 hPa 0,0 l/m 14,4 km/h (3 Bft) W 267 0 min 0,000 mm 0,0 UV-I 0 W/m 8,5 C 5,3 C 19,3 km/h (3 Bft) 97,56 %
20.03.2017 04:44 9,9 C 91 % 1011,3 hPa 0,0 l/m 15,0 km/h (3 Bft) SW 234 0 min 0,000 mm 0,0 UV-I 0 W/m 8,5 C 5,0 C 25,7 km/h (4 Bft) 96,23 %
20.03.2017 04:46 9,9 C 91 % 1011,3 hPa 0,0 l/m 14,5 km/h (3 Bft) W-SW 256 0 min 0,000 mm 0,0 UV-I 0 W/m 8,5 C 5,2 C 22,5 km/h (4 Bft) 100,00 %
20.03.2017 04:48 9,9 C 91 % 1011,3 hPa 0,0 l/m 14,9 km/h (3 Bft) W-SW 253 0 min 0,000 mm 0,0 UV-I 0 W/m 8,5 C 5,1 C 25,7 km/h (4 Bft) 98,31 %
20.03.2017 04:50 9,9 C 91 % 1011,3 hPa 0,0 l/m 13,7 km/h (3 Bft) W-SW 248 0 min 0,000 mm 0,0 UV-I 0 W/m 8,5 C 5,6 C 20,9 km/h (4 Bft) 100,00 %
20.03.2017 04:52 9,9 C 91 % 1011,4 hPa 0,0 l/m 17,0 km/h (3 Bft) W-SW 246 0 min 0,000 mm 0,0 UV-I 0 W/m 8,5 C 4,2 C 22,5 km/h (4 Bft) 96,23 %
20.03.2017 04:54 9,9 C 91 % 1011,3 hPa 0,0 l/m 12,7 km/h (3 Bft) W-SW 237 0 min 0,000 mm 0,0 UV-I 0 W/m 8,5 C 6,1 C 16,1 km/h (3 Bft) 100,00 %
20.03.2017 04:56 9,9 C 91 % 1011,3 hPa 0,0 l/m 13,2 km/h (3 Bft) W-SW 247 0 min 0,000 mm 0,0 UV-I 0 W/m 8,5 C 5,8 C 19,3 km/h (3 Bft) 100,00 %
20.03.2017 04:58 9,9 C 91 % 1011,3 hPa 0,0 l/m 12,0 km/h (2 Bft) W-SW 247 0 min 0,000 mm 0,0 UV-I 0 W/m 8,5 C 6,4 C 19,3 km/h (3 Bft) 98,11 %
20.03.2017 05:00 9,9 C 91 % 1011,3 hPa 0,0 l/m 11,3 km/h (2 Bft) W-SW 242 0 min 0,000 mm 0,0 UV-I 0 W/m 8,5 C 6,8 C 17,7 km/h (3 Bft) 100,00 %
20.03.2017 05:02 9,9 C 90 % 1011,3 hPa 0,0 l/m 16,2 km/h (3 Bft) W-SW 250 0 min 0,025 mm 0,0 UV-I 0 W/m 8,3 C 4,5 C 24,1 km/h (4 Bft) 100,00 %
20.03.2017 05:04 9,9 C 90 % 1011,3 hPa 0,0 l/m 17,3 km/h (3 Bft) W-SW 257 0 min 0,000 mm 0,0 UV-I 0 W/m 8,3 C 4,1 C 25,7 km/h (4 Bft) 100,00 %
20.03.2017 05:06 9,9 C 90 % 1011,3 hPa 0,0 l/m 14,4 km/h (3 Bft) SW 230 0 min 0,000 mm 0,0 UV-I 0 W/m 8,3 C 5,3 C 20,9 km/h (4 Bft) 97,37 %
20.03.2017 05:08 9,9 C 90 % 1011,4 hPa 0,0 l/m 18,0 km/h (3 Bft) SW 222 0 min 0,000 mm 0,0 UV-I 0 W/m 8,3 C 3,8 C 27,4 km/h (4 Bft) 96,61 %
20.03.2017 05:10 9,9 C 90 % 1011,4 hPa 0,0 l/m 16,6 km/h (3 Bft) W-SW 249 0 min 0,000 mm 0,0 UV-I 0 W/m 8,3 C 4,4 C 24,1 km/h (4 Bft) 92,59 %
20.03.2017 05:12 9,9 C 90 % 1011,4 hPa 0,0 l/m 16,9 km/h (3 Bft) W-SW 250 0 min 0,000 mm 0,0 UV-I 0 W/m 8,3 C 4,3 C 24,1 km/h (4 Bft) 95,59 %
20.03.2017 05:14 9,9 C 90 % 1011,4 hPa 0,0 l/m 16,1 km/h (3 Bft) W 274 0 min 0,000 mm 0,0 UV-I 0 W/m 8,3 C 4,6 C 22,5 km/h (4 Bft) 95,12 %
20.03.2017 05:16 9,9 C 90 % 1011,4 hPa 0,0 l/m 16,5 km/h (3 Bft) W 259 0 min 0,000 mm 0,0 UV-I 0 W/m 8,3 C 4,4 C 20,9 km/h (4 Bft) 97,73 %
20.03.2017 05:18 9,8 C 90 % 1011,4 hPa 0,0 l/m 17,3 km/h (3 Bft) W-SW 258 0 min 0,000 mm 0,0 UV-I 0 W/m 8,2 C 4,0 C 29,0 km/h (5 Bft) 96,00 %
20.03.2017 05:20 9,8 C 89 % 1011,3 hPa 0,0 l/m 16,4 km/h (3 Bft) W 270 0 min 0,000 mm 0,0 UV-I 0 W/m 8,1 C 4,3 C 22,5 km/h (4 Bft) 96,23 %
20.03.2017 05:22 9,8 C 89 % 1011,4 hPa 0,0 l/m 18,3 km/h (3 Bft) W 267 0 min 0,000 mm 0,0 UV-I 0 W/m 8,1 C 3,6 C 24,1 km/h (4 Bft) 97,73 %
20.03.2017 05:24 9,8 C 89 % 1011,4 hPa 0,0 l/m 17,6 km/h (3 Bft) W-SW 258 0 min 0,000 mm 0,0 UV-I 0 W/m 8,1 C 3,9 C 24,1 km/h (4 Bft) 92,68 %
20.03.2017 05:26 9,8 C 89 % 1011,4 hPa 0,0 l/m 16,9 km/h (3 Bft) W-SW 246 0 min 0,000 mm 0,0 UV-I 0 W/m 8,1 C 4,1 C 22,5 km/h (4 Bft) 96,00 %
20.03.2017 05:28 9,9 C 89 % 1011,4 hPa 0,0 l/m 16,0 km/h (3 Bft) W 273 0 min 0,000 mm 0,0 UV-I 0 W/m 8,2 C 4,6 C 22,5 km/h (4 Bft) 94,74 %
20.03.2017 05:30 9,9 C 89 % 1011,5 hPa 0,0 l/m 17,4 km/h (3 Bft) W-SW 240 0 min 0,000 mm 0,0 UV-I 0 W/m 8,2 C 4,1 C 22,5 km/h (4 Bft) 96,23 %
20.03.2017 05:32 9,9 C 89 % 1011,5 hPa 0,0 l/m 18,7 km/h (3 Bft) W-SW 244 0 min 0,000 mm 0,0 UV-I 0 W/m 8,2 C 3,6 C 30,6 km/h (5 Bft) 98,11 %
20.03.2017 05:34 9,9 C 89 % 1011,5 hPa 0,0 l/m 20,1 km/h (4 Bft) SW 227 0 min 0,000 mm 0,0 UV-I 0 W/m 8,2 C 3,1 C 30,6 km/h (5 Bft) 93,62 %
20.03.2017 05:36 9,9 C 89 % 1011,5 hPa 0,0 l/m 16,1 km/h (3 Bft) W 272 0 min 0,000 mm 0,0 UV-I 0 W/m 8,2 C 4,6 C 27,4 km/h (4 Bft) 100,00 %
20.03.2017 05:38 9,9 C 89 % 1011,5 hPa 0,0 l/m 16,1 km/h (3 Bft) W 273 0 min 0,000 mm 0,0 UV-I 0 W/m 8,2 C 4,6 C 22,5 km/h (4 Bft) 94,64 %
20.03.2017 05:40 9,9 C 89 % 1011,6 hPa 0,0 l/m 14,6 km/h (3 Bft) W 277 0 min 0,000 mm 0,0 UV-I 0 W/m 8,2 C 5,2 C 22,5 km/h (4 Bft) 92,68 %
20.03.2017 05:42 9,9 C 89 % 1011,6 hPa 0,0 l/m 17,2 km/h (3 Bft) W-SW 251 0 min 0,000 mm 0,0 UV-I 0 W/m 8,2 C 4,1 C 27,4 km/h (4 Bft) 96,00 %
20.03.2017 05:44 9,9 C 89 % 1011,5 hPa 0,0 l/m 15,9 km/h (3 Bft) W 263 0 min 0,000 mm 0,0 UV-I 0 W/m 8,2 C 4,6 C 22,5 km/h (4 Bft) 100,00 %
20.03.2017 05:46 9,9 C 89 % 1011,6 hPa 0,0 l/m 17,6 km/h (3 Bft) W-SW 246 0 min 0,000 mm 0,0 UV-I 0 W/m 8,2 C 4,0 C 24,1 km/h (4 Bft) 94,03 %
20.03.2017 05:48 9,9 C 89 % 1011,6 hPa 0,0 l/m 17,5 km/h (3 Bft) SW 229 0 min 0,000 mm 0,0 UV-I 0 W/m 8,2 C 4,0 C 27,4 km/h (4 Bft) 95,83 %
20.03.2017 05:50 9,9 C 89 % 1011,6 hPa 0,0 l/m 15,1 km/h (3 Bft) W 263 0 min 0,000 mm 0,0 UV-I 0 W/m 8,2 C 5,0 C 24,1 km/h (4 Bft) 100,00 %
20.03.2017 05:52 9,9 C 88 % 1011,7 hPa 0,0 l/m 17,6 km/h (3 Bft) W-SW 245 0 min 0,000 mm 0,0 UV-I 0 W/m 8,0 C 4,0 C 24,1 km/h (4 Bft) 92,50 %
20.03.2017 05:54 9,9 C 88 % 1011,7 hPa 0,0 l/m 15,9 km/h (3 Bft) W-SW 256 0 min 0,000 mm 0,0 UV-I 0 W/m 8,0 C 4,6 C 22,5 km/h (4 Bft) 92,00 %
20.03.2017 05:56 9,9 C 88 % 1011,6 hPa 0,0 l/m 14,2 km/h (3 Bft) W-SW 251 0 min 0,000 mm 0,0 UV-I 0 W/m 8,0 C 5,4 C 22,5 km/h (4 Bft) 92,68 %
20.03.2017 05:58 9,9 C 88 % 1011,9 hPa 0,0 l/m 16,3 km/h (3 Bft) W-SW 247 0 min 0,000 mm 0,0 UV-I 0 W/m 8,0 C 4,5 C 20,9 km/h (4 Bft) 97,56 %
20.03.2017 06:00 9,9 C 88 % 1011,8 hPa 0,0 l/m 13,6 km/h (3 Bft) W-SW 238 0 min 0,026 mm 0,0 UV-I 0 W/m 8,0 C 5,6 C 20,9 km/h (4 Bft) 92,45 %
20.03.2017 06:02 9,9 C 87 % 1011,9 hPa 0,0 l/m 14,8 km/h (3 Bft) SW 226 0 min 0,000 mm 0,0 UV-I 0 W/m 7,8 C 5,1 C 20,9 km/h (4 Bft) 92,00 %
20.03.2017 06:04 9,9 C 87 % 1011,7 hPa 0,0 l/m 16,1 km/h (3 Bft) W-SW 237 0 min 0,000 mm 0,0 UV-I 0 W/m 7,8 C 4,6 C 25,7 km/h (4 Bft) 89,47 %
20.03.2017 06:06 9,9 C 87 % 1011,8 hPa 0,0 l/m 18,5 km/h (3 Bft) W-SW 249 0 min 0,000 mm 0,0 UV-I 0 W/m 7,8 C 3,7 C 25,7 km/h (4 Bft) 96,00 %
20.03.2017 06:08 9,9 C 87 % 1011,9 hPa 0,0 l/m 17,7 km/h (3 Bft) W 269 0 min 0,000 mm 0,0 UV-I 5 W/m 7,8 C 4,0 C 25,7 km/h (4 Bft) 95,12 %
20.03.2017 06:10 9,9 C 87 % 1011,9 hPa 0,0 l/m 19,5 km/h (3 Bft) W-SW 256 0 min 0,000 mm 0,0 UV-I 5 W/m 7,8 C 3,3 C 27,4 km/h (4 Bft) 95,45 %
20.03.2017 06:12 9,9 C 87 % 1011,9 hPa 0,0 l/m 13,9 km/h (3 Bft) W-SW 241 0 min 0,000 mm 0,0 UV-I 5 W/m 7,8 C 5,5 C 24,1 km/h (4 Bft) 91,53 %
20.03.2017 06:14 9,9 C 87 % 1011,9 hPa 0,0 l/m 15,0 km/h (3 Bft) SW 221 0 min 0,000 mm 0,0 UV-I 7 W/m 7,8 C 5,0 C 19,3 km/h (3 Bft) 90,91 %
20.03.2017 06:16 9,9 C 86 % 1011,9 hPa 0,0 l/m 18,9 km/h (3 Bft) W-SW 250 0 min 0,000 mm 0,0 UV-I 7 W/m 7,7 C 3,5 C 27,4 km/h (4 Bft) 93,62 %
20.03.2017 06:18 9,9 C 86 % 1011,9 hPa 0,0 l/m 19,0 km/h (3 Bft) W-SW 247 0 min 0,000 mm 0,0 UV-I 8 W/m 7,7 C 3,5 C 29,0 km/h (5 Bft) 91,67 %
20.03.2017 06:20 9,9 C 86 % 1011,9 hPa 0,0 l/m 17,0 km/h (3 Bft) W-SW 253 0 min 0,000 mm 0,0 UV-I 11 W/m 7,7 C 4,2 C 24,1 km/h (4 Bft) 91,38 %
20.03.2017 06:22 9,9 C 86 % 1011,8 hPa 0,0 l/m 15,4 km/h (3 Bft) W-SW 239 0 min 0,000 mm 0,0 UV-I 12 W/m 7,7 C 4,8 C 22,5 km/h (4 Bft) 100,00 %
20.03.2017 06:24 9,9 C 86 % 1011,8 hPa 0,0 l/m 19,6 km/h (3 Bft) SW 221 0 min 0,000 mm 0,0 UV-I 13 W/m 7,7 C 3,3 C 30,6 km/h (5 Bft) 92,59 %
20.03.2017 06:26 10,0 C 85 % 1011,8 hPa 0,0 l/m 17,5 km/h (3 Bft) W 268 0 min 0,000 mm 0,0 UV-I 15 W/m 7,6 C 4,2 C 24,1 km/h (4 Bft) 98,53 %
20.03.2017 06:28 10,0 C 86 % 1011,8 hPa 0,0 l/m 17,7 km/h (3 Bft) W 260 0 min 0,000 mm 0,0 UV-I 16 W/m 7,8 C 4,1 C 25,7 km/h (4 Bft) 100,00 %
20.03.2017 06:30 10,0 C 86 % 1011,9 hPa 0,0 l/m 17,6 km/h (3 Bft) W-SW 254 0 min 0,000 mm 0,0 UV-I 16 W/m 7,8 C 4,1 C 22,5 km/h (4 Bft) 96,00 %
20.03.2017 06:32 10,0 C 86 % 1011,9 hPa 0,0 l/m 19,9 km/h (4 Bft) W 275 0 min 0,000 mm 0,0 UV-I 17 W/m 7,8 C 3,3 C 29,0 km/h (5 Bft) 93,62 %
20.03.2017 06:34 10,0 C 86 % 1011,9 hPa 0,0 l/m 15,0 km/h (3 Bft) W-SW 243 0 min 0,000 mm 0,0 UV-I 20 W/m 7,8 C 5,1 C 24,1 km/h (4 Bft) 95,56 %
20.03.2017 06:36 10,0 C 86 % 1011,9 hPa 0,0 l/m 15,1 km/h (3 Bft) W 268 0 min 0,000 mm 0,0 UV-I 24 W/m 7,8 C 5,1 C 24,1 km/h (4 Bft) 95,12 %
20.03.2017 06:38 10,0 C 86 % 1012,0 hPa 0,0 l/m 16,4 km/h (3 Bft) W-NW 283 0 min 0,000 mm 0,0 UV-I 25 W/m 7,8 C 4,6 C 20,9 km/h (4 Bft) 94,92 %
20.03.2017 06:40 10,0 C 86 % 1012,0 hPa 0,0 l/m 22,9 km/h (4 Bft) W 261 0 min 0,000 mm 0,0 UV-I 26 W/m 7,8 C 2,4 C 33,8 km/h (5 Bft) 95,45 %
20.03.2017 06:42 10,0 C 86 % 1012,1 hPa 0,0 l/m 16,2 km/h (3 Bft) W 264 0 min 0,000 mm 0,0 UV-I 30 W/m 7,8 C 4,6 C 20,9 km/h (4 Bft) 98,00 %
20.03.2017 06:44 10,1 C 86 % 1012,1 hPa 0,0 l/m 13,2 km/h (3 Bft) W 262 0 min 0,000 mm 0,0 UV-I 28 W/m 7,9 C 6,0 C 20,9 km/h (4 Bft) 94,74 %
20.03.2017 06:46 10,1 C 86 % 1012,2 hPa 0,0 l/m 15,5 km/h (3 Bft) W-SW 249 0 min 0,000 mm 0,0 UV-I 25 W/m 7,9 C 5,0 C 24,1 km/h (4 Bft) 92,00 %
20.03.2017 06:48 10,1 C 85 % 1012,1 hPa 0,0 l/m 13,9 km/h (3 Bft) SW 236 0 min 0,000 mm 0,0 UV-I 24 W/m 7,7 C 5,7 C 20,9 km/h (4 Bft) 97,73 %
20.03.2017 06:50 10,1 C 85 % 1012,2 hPa 0,0 l/m 15,3 km/h (3 Bft) W-SW 250 0 min 0,000 mm 0,0 UV-I 27 W/m 7,7 C 5,1 C 22,5 km/h (4 Bft) 97,73 %
20.03.2017 06:52 10,1 C 85 % 1012,2 hPa 0,0 l/m 12,6 km/h (3 Bft) W 263 0 min 0,000 mm 0,0 UV-I 28 W/m 7,7 C 6,3 C 19,3 km/h (3 Bft) 100,00 %
20.03.2017 06:54 10,1 C 86 % 1012,2 hPa 0,0 l/m 16,2 km/h (3 Bft) W-SW 248 0 min 0,000 mm 0,0 UV-I 33 W/m 7,9 C 4,8 C 20,9 km/h (4 Bft) 96,00 %
20.03.2017 06:56 10,1 C 85 % 1012,2 hPa 0,0 l/m 15,8 km/h (3 Bft) W-SW 246 0 min 0,000 mm 0,0 UV-I 32 W/m 7,7 C 4,9 C 20,9 km/h (4 Bft) 92,11 %
20.03.2017 06:58 10,1 C 85 % 1012,3 hPa 0,0 l/m 14,2 km/h (3 Bft) W 266 0 min 0,000 mm 0,0 UV-I 23 W/m 7,7 C 5,6 C 20,9 km/h (4 Bft) 98,21 %
20.03.2017 07:00 10,1 C 85 % 1012,3 hPa 0,0 l/m 16,3 km/h (3 Bft) W-SW 253 0 min 0,025 mm 0,0 UV-I 19 W/m 7,7 C 4,7 C 24,1 km/h (4 Bft) 100,00 %
20.03.2017 07:02 10,1 C 86 % 1012,4 hPa 0,0 l/m 9,8 km/h (2 Bft) W-SW 253 0 min 0,000 mm 0,0 UV-I 19 W/m 7,9 C 7,8 C 16,1 km/h (3 Bft) 92,31 %
20.03.2017 07:04 10,1 C 86 % 1012,4 hPa 0,0 l/m 13,4 km/h (3 Bft) W 268 0 min 0,000 mm 0,0 UV-I 19 W/m 7,9 C 6,0 C 19,3 km/h (3 Bft) 96,43 %
20.03.2017 07:06 10,0 C 86 % 1012,5 hPa 0,0 l/m 10,9 km/h (2 Bft) W 279 0 min 0,000 mm 0,0 UV-I 21 W/m 7,8 C 7,1 C 16,1 km/h (3 Bft) 100,00 %
20.03.2017 07:08 10,0 C 86 % 1012,4 hPa 0,0 l/m 11,7 km/h (2 Bft) W-SW 238 0 min 0,000 mm 0,0 UV-I 25 W/m 7,8 C 6,7 C 17,7 km/h (3 Bft) 95,12 %
20.03.2017 07:10 10,0 C 86 % 1012,5 hPa 0,0 l/m 11,4 km/h (2 Bft) W-SW 248 0 min 0,000 mm 0,0 UV-I 27 W/m 7,8 C 6,8 C 16,1 km/h (3 Bft) 91,53 %
20.03.2017 07:12 10,0 C 86 % 1012,5 hPa 0,0 l/m 14,1 km/h (3 Bft) W-SW 242 0 min 0,000 mm 0,0 UV-I 32 W/m 7,8 C 5,5 C 20,9 km/h (4 Bft) 100,00 %
20.03.2017 07:14 10,0 C 86 % 1012,5 hPa 0,0 l/m 15,3 km/h (3 Bft) W-SW 243 0 min 0,000 mm 0,0 UV-I 33 W/m 7,8 C 5,0 C 22,5 km/h (4 Bft) 95,12 %
20.03.2017 07:16 10,1 C 86 % 1012,5 hPa 0,0 l/m 13,8 km/h (3 Bft) SW 234 0 min 0,000 mm 0,0 UV-I 31 W/m 7,9 C 5,8 C 20,9 km/h (4 Bft) 92,00 %
20.03.2017 07:18 10,1 C 86 % 1012,5 hPa 0,0 l/m 11,9 km/h (2 Bft) SW 229 0 min 0,000 mm 0,0 UV-I 31 W/m 7,9 C 6,7 C 20,9 km/h (4 Bft) 98,11 %
20.03.2017 07:20 10,1 C 86 % 1012,6 hPa 0,0 l/m 13,9 km/h (3 Bft) W-SW 251 0 min 0,000 mm 0,0 UV-I 32 W/m 7,9 C 5,7 C 17,7 km/h (3 Bft) 100,00 %
20.03.2017 07:22 10,1 C 86 % 1012,6 hPa 0,0 l/m 13,0 km/h (3 Bft) W-SW 243 0 min 0,000 mm 0,0 UV-I 42 W/m 7,9 C 6,1 C 20,9 km/h (4 Bft) 95,45 %
20.03.2017 07:24 10,1 C 85 % 1012,6 hPa 0,0 l/m 14,6 km/h (3 Bft) W-SW 244 0 min 0,000 mm 0,0 UV-I 49 W/m 7,7 C 5,4 C 22,5 km/h (4 Bft) 98,11 %
20.03.2017 07:26 10,1 C 85 % 1012,6 hPa 0,0 l/m 12,4 km/h (3 Bft) W-SW 244 0 min 0,000 mm 0,0 UV-I 53 W/m 7,7 C 6,4 C 20,9 km/h (4 Bft) 97,56 %
20.03.2017 07:28 10,1 C 85 % 1012,6 hPa 0,0 l/m 13,0 km/h (3 Bft) SW 225 0 min 0,000 mm 0,0 UV-I 66 W/m 7,7 C 6,1 C 17,7 km/h (3 Bft) 98,11 %
20.03.2017 07:30 10,1 C 85 % 1012,6 hPa 0,0 l/m 14,0 km/h (3 Bft) W 259 0 min 0,000 mm 0,0 UV-I 69 W/m 7,7 C 5,7 C 24,1 km/h (4 Bft) 100,00 %
20.03.2017 07:32 10,1 C 85 % 1012,7 hPa 0,0 l/m 14,8 km/h (3 Bft) W-SW 250 0 min 0,000 mm 0,0 UV-I 61 W/m 7,7 C 5,3 C 22,5 km/h (4 Bft) 98,11 %
20.03.2017 07:34 10,1 C 85 % 1012,7 hPa 0,0 l/m 15,5 km/h (3 Bft) W 277 0 min 0,000 mm 0,0 UV-I 56 W/m 7,7 C 5,0 C 20,9 km/h (4 Bft) 97,56 %
20.03.2017 07:36 10,2 C 84 % 1012,7 hPa 0,0 l/m 14,6 km/h (3 Bft) W-SW 257 0 min 0,000 mm 0,0 UV-I 49 W/m 7,6 C 5,5 C 22,5 km/h (4 Bft) 95,45 %
20.03.2017 07:38 10,2 C 84 % 1012,7 hPa 0,0 l/m 14,4 km/h (3 Bft) W-SW 258 0 min 0,000 mm 0,0 UV-I 50 W/m 7,6 C 5,6 C 24,1 km/h (4 Bft) 100,00 %
20.03.2017 07:40 10,2 C 84 % 1012,7 hPa 0,0 l/m 14,0 km/h (3 Bft) W-SW 246 0 min 0,000 mm 0,0 UV-I 59 W/m 7,6 C 5,8 C 19,3 km/h (3 Bft) 97,62 %
20.03.2017 07:42 10,2 C 84 % 1012,7 hPa 0,0 l/m 12,0 km/h (2 Bft) W 277 0 min 0,000 mm 0,0 UV-I 70 W/m 7,6 C 6,7 C 19,3 km/h (3 Bft) 100,00 %
20.03.2017 07:44 10,2 C 84 % 1012,7 hPa 0,0 l/m 13,8 km/h (3 Bft) W 261 0 min 0,000 mm 0,0 UV-I 76 W/m 7,6 C 5,9 C 22,5 km/h (4 Bft) 100,00 %
20.03.2017 07:46 10,2 C 84 % 1012,7 hPa 0,0 l/m 13,0 km/h (3 Bft) W-SW 238 0 min 0,000 mm 0,0 UV-I 79 W/m 7,6 C 6,3 C 20,9 km/h (4 Bft) 97,56 %
20.03.2017 07:48 10,2 C 84 % 1012,7 hPa 0,0 l/m 18,0 km/h (3 Bft) W-SW 257 0 min 0,000 mm 0,0 UV-I 76 W/m 7,6 C 4,2 C 25,7 km/h (4 Bft) 93,18 %
20.03.2017 07:50 10,2 C 84 % 1012,7 hPa 0,0 l/m 12,5 km/h (3 Bft) SW 236 0 min 0,000 mm 0,0 UV-I 78 W/m 7,6 C 6,5 C 22,5 km/h (4 Bft) 96,61 %
20.03.2017 07:52 10,2 C 84 % 1012,7 hPa 0,0 l/m 12,2 km/h (2 Bft) W-SW 250 0 min 0,000 mm 0,0 UV-I 82 W/m 7,6 C 6,6 C 20,9 km/h (4 Bft) 92,68 %
20.03.2017 07:54 10,2 C 84 % 1012,7 hPa 0,0 l/m 14,0 km/h (3 Bft) W 259 0 min 0,000 mm 0,0 UV-I 78 W/m 7,6 C 5,8 C 20,9 km/h (4 Bft) 95,45 %
20.03.2017 07:56 10,2 C 84 % 1012,7 hPa 0,0 l/m 17,8 km/h (3 Bft) W 265 0 min 0,000 mm 0,0 UV-I 79 W/m 7,6 C 4,3 C 22,5 km/h (4 Bft) 95,74 %
20.03.2017 07:58 10,2 C 84 % 1012,7 hPa 0,0 l/m 15,0 km/h (3 Bft) W-SW 250 0 min 0,000 mm 0,0 UV-I 83 W/m 7,6 C 5,4 C 24,1 km/h (4 Bft) 94,34 %
20.03.2017 08:00 10,2 C 84 % 1012,7 hPa 0,0 l/m 19,2 km/h (3 Bft) W-SW 238 0 min 0,051 mm 0,0 UV-I 87 W/m 7,6 C 3,8 C 25,7 km/h (4 Bft) 96,00 %
20.03.2017 08:02 10,2 C 84 % 1012,7 hPa 0,0 l/m 15,9 km/h (3 Bft) W 262 0 min 0,000 mm 0,0 UV-I 95 W/m 7,6 C 5,0 C 24,1 km/h (4 Bft) 97,73 %
20.03.2017 08:04 10,2 C 84 % 1012,7 hPa 0,0 l/m 20,0 km/h (4 Bft) W 278 0 min 0,000 mm 0,0 UV-I 106 W/m 7,6 C 3,5 C 27,4 km/h (4 Bft) 90,48 %
20.03.2017 08:06 10,2 C 84 % 1012,7 hPa 0,0 l/m 17,2 km/h (3 Bft) W-SW 254 0 min 0,000 mm 0,0 UV-I 118 W/m 7,6 C 4,5 C 25,7 km/h (4 Bft) 98,00 %
20.03.2017 08:08 10,2 C 84 % 1012,8 hPa 0,0 l/m 18,1 km/h (3 Bft) W-SW 254 0 min 0,000 mm 0,0 UV-I 113 W/m 7,6 C 4,2 C 29,0 km/h (5 Bft) 92,68 %
20.03.2017 08:10 10,2 C 84 % 1012,7 hPa 0,0 l/m 17,6 km/h (3 Bft) SW 221 0 min 0,000 mm 0,0 UV-I 108 W/m 7,6 C 4,4 C 29,0 km/h (5 Bft) 90,24 %
20.03.2017 08:12 10,2 C 84 % 1012,8 hPa 0,0 l/m 18,3 km/h (3 Bft) W 261 0 min 0,000 mm 0,0 UV-I 102 W/m 7,6 C 4,1 C 27,4 km/h (4 Bft) 100,00 %
20.03.2017 08:14 10,2 C 84 % 1012,8 hPa 0,0 l/m 18,6 km/h (3 Bft) W-SW 250 0 min 0,000 mm 0,0 UV-I 89 W/m 7,6 C 4,0 C 27,4 km/h (4 Bft) 96,43 %
20.03.2017 08:16 10,1 C 84 % 1012,8 hPa 0,0 l/m 14,1 km/h (3 Bft) S-SW 209 0 min 0,000 mm 0,0 UV-I 90 W/m 7,5 C 5,6 C 20,9 km/h (4 Bft) 97,56 %
20.03.2017 08:18 10,1 C 84 % 1012,8 hPa 0,0 l/m 16,1 km/h (3 Bft) W-SW 242 0 min 0,000 mm 0,0 UV-I 97 W/m 7,5 C 4,8 C 24,1 km/h (4 Bft) 97,78 %
20.03.2017 08:20 10,1 C 84 % 1012,7 hPa 0,0 l/m 15,7 km/h (3 Bft) SW 236 0 min 0,000 mm 0,0 UV-I 111 W/m 7,5 C 5,0 C 32,2 km/h (5 Bft) 94,23 %
20.03.2017 08:22 10,1 C 84 % 1012,8 hPa 0,0 l/m 15,6 km/h (3 Bft) SW 229 0 min 0,000 mm 0,0 UV-I 130 W/m 7,5 C 5,0 C 22,5 km/h (4 Bft) 95,45 %
20.03.2017 08:24 10,1 C 84 % 1012,7 hPa 0,0 l/m 11,9 km/h (2 Bft) W 270 0 min 0,000 mm 0,0 UV-I 136 W/m 7,5 C 6,7 C 19,3 km/h (3 Bft) 92,86 %
20.03.2017 08:26 10,1 C 84 % 1012,8 hPa 0,0 l/m 15,4 km/h (3 Bft) SW 234 0 min 0,000 mm 0,0 UV-I 135 W/m 7,5 C 5,1 C 24,1 km/h (4 Bft) 98,11 %
20.03.2017 08:28 10,1 C 84 % 1012,7 hPa 0,0 l/m 17,1 km/h (3 Bft) W 268 0 min 0,000 mm 0,0 UV-I 121 W/m 7,5 C 4,4 C 29,0 km/h (5 Bft) 98,00 %
20.03.2017 08:30 10,1 C 84 % 1012,7 hPa 0,0 l/m 18,4 km/h (3 Bft) W-SW 256 0 min 0,000 mm 0,0 UV-I 104 W/m 7,5 C 4,0 C 25,7 km/h (4 Bft) 93,62 %
20.03.2017 08:32 10,1 C 84 % 1012,8 hPa 0,0 l/m 17,8 km/h (3 Bft) W-SW 239 0 min 0,000 mm 0,0 UV-I 83 W/m 7,5 C 4,2 C 24,1 km/h (4 Bft) 100,00 %
20.03.2017 08:34 10,1 C 84 % 1012,7 hPa 0,0 l/m 18,0 km/h (3 Bft) W-SW 252 0 min 0,000 mm 0,0 UV-I 81 W/m 7,5 C 4,1 C 24,1 km/h (4 Bft) 98,00 %
20.03.2017 08:36 10,1 C 84 % 1012,7 hPa 0,0 l/m 17,1 km/h (3 Bft) W-SW 238 0 min 0,000 mm 0,0 UV-I 88 W/m 7,5 C 4,4 C 25,7 km/h (4 Bft) 100,00 %
20.03.2017 08:38 10,1 C 84 % 1012,8 hPa 0,0 l/m 16,8 km/h (3 Bft) W-SW 250 0 min 0,000 mm 0,0 UV-I 92 W/m 7,5 C 4,5 C 27,4 km/h (4 Bft) 97,37 %
20.03.2017 08:40 10,0 C 84 % 1012,8 hPa 0,0 l/m 16,8 km/h (3 Bft) SW 235 0 min 0,000 mm 0,0 UV-I 87 W/m 7,4 C 4,4 C 24,1 km/h (4 Bft) 98,00 %
20.03.2017 08:42 10,0 C 84 % 1012,7 hPa 0,0 l/m 14,2 km/h (3 Bft) W 259 0 min 0,000 mm 0,0 UV-I 82 W/m 7,4 C 5,5 C 24,1 km/h (4 Bft) 98,00 %
20.03.2017 08:44 10,0 C 84 % 1012,8 hPa 0,0 l/m 13,6 km/h (3 Bft) W 262 0 min 0,000 mm 0,0 UV-I 91 W/m 7,4 C 5,7 C 20,9 km/h (4 Bft) 97,87 %
20.03.2017 08:46 10,0 C 84 % 1012,7 hPa 0,0 l/m 13,5 km/h (3 Bft) SW 222 0 min 0,000 mm 0,0 UV-I 99 W/m 7,4 C 5,8 C 20,9 km/h (4 Bft) 93,62 %
20.03.2017 08:48 10,0 C 84 % 1012,8 hPa 0,0 l/m 13,2 km/h (3 Bft) W 277 0 min 0,000 mm 0,0 UV-I 90 W/m 7,4 C 5,9 C 17,7 km/h (3 Bft) 92,31 %
20.03.2017 08:50 10,0 C 84 % 1012,7 hPa 0,0 l/m 13,7 km/h (3 Bft) W-SW 250 0 min 0,000 mm 0,0 UV-I 91 W/m 7,4 C 5,7 C 19,3 km/h (3 Bft) 100,00 %
20.03.2017 08:52 10,0 C 84 % 1012,8 hPa 0,0 l/m 14,3 km/h (3 Bft) S-SW 211 0 min 0,000 mm 0,0 UV-I 97 W/m 7,4 C 5,4 C 19,3 km/h (3 Bft) 97,73 %
20.03.2017 08:54 10,0 C 84 % 1012,8 hPa 0,0 l/m 12,7 km/h (3 Bft) SW 235 0 min 0,000 mm 0,0 UV-I 109 W/m 7,4 C 6,2 C 19,3 km/h (3 Bft) 95,12 %
20.03.2017 08:56 10,0 C 84 % 1012,8 hPa 0,0 l/m 16,9 km/h (3 Bft) SW 229 0 min 0,000 mm 0,0 UV-I 97 W/m 7,4 C 4,4 C 29,0 km/h (5 Bft) 93,62 %
20.03.2017 08:58 10,0 C 84 % 1012,9 hPa 0,0 l/m 13,2 km/h (3 Bft) W-SW 248 0 min 0,000 mm 0,0 UV-I 91 W/m 7,4 C 5,9 C 19,3 km/h (3 Bft) 96,23 %
20.03.2017 09:00 10,0 C 84 % 1012,8 hPa 0,0 l/m 12,9 km/h (3 Bft) SW 229 0 min 0,000 mm 0,0 UV-I 100 W/m 7,4 C 6,1 C 22,5 km/h (4 Bft) 98,04 %
20.03.2017 09:02 10,0 C 85 % 1012,8 hPa 0,0 l/m 13,4 km/h (3 Bft) W-SW 249 0 min 0,076 mm 0,0 UV-I 104 W/m 7,6 C 5,8 C 20,9 km/h (4 Bft) 96,97 %
20.03.2017 09:04 10,0 C 85 % 1012,8 hPa 0,0 l/m 12,2 km/h (2 Bft) W-SW 257 0 min 0,000 mm 0,3 UV-I 118 W/m 7,6 C 6,4 C 19,3 km/h (3 Bft) 100,00 %
20.03.2017 09:06 10,0 C 85 % 1012,8 hPa 0,0 l/m 16,7 km/h (3 Bft) W-SW 252 0 min 0,000 mm 0,5 UV-I 134 W/m 7,6 C 4,5 C 22,5 km/h (4 Bft) 96,00 %
20.03.2017 09:08 10,0 C 84 % 1012,8 hPa 0,0 l/m 15,4 km/h (3 Bft) SW 222 0 min 0,000 mm 0,5 UV-I 129 W/m 7,4 C 5,0 C 25,7 km/h (4 Bft) 100,00 %
20.03.2017 09:10 10,1 C 85 % 1012,8 hPa 0,0 l/m 13,4 km/h (3 Bft) S 185 0 min 0,000 mm 0,5 UV-I 128 W/m 7,7 C 6,0 C 19,3 km/h (3 Bft) 98,11 %
20.03.2017 09:12 10,0 C 84 % 1012,8 hPa 0,0 l/m 14,3 km/h (3 Bft) SW 222 0 min 0,000 mm 0,5 UV-I 123 W/m 7,4 C 5,4 C 20,9 km/h (4 Bft) 92,11 %
20.03.2017 09:14 10,0 C 85 % 1012,8 hPa 0,0 l/m 16,5 km/h (3 Bft) W-SW 257 0 min 0,000 mm 0,5 UV-I 132 W/m 7,6 C 4,5 C 20,9 km/h (4 Bft) 100,00 %
20.03.2017 09:16 10,0 C 85 % 1012,9 hPa 0,0 l/m 14,8 km/h (3 Bft) SW 219 0 min 0,000 mm 0,5 UV-I 140 W/m 7,6 C 5,2 C 19,3 km/h (3 Bft) 95,12 %
20.03.2017 09:18 10,0 C 85 % 1012,8 hPa 0,0 l/m 15,5 km/h (3 Bft) S-SW 194 0 min 0,000 mm 0,5 UV-I 134 W/m 7,6 C 4,9 C 25,7 km/h (4 Bft) 94,34 %
20.03.2017 09:20 10,0 C 84 % 1012,8 hPa 0,0 l/m 16,5 km/h (3 Bft) SW 219 0 min 0,000 mm 0,6 UV-I 141 W/m 7,4 C 4,5 C 22,5 km/h (4 Bft) 98,11 %
20.03.2017 09:22 10,0 C 84 % 1012,9 hPa 0,0 l/m 15,1 km/h (3 Bft) SW 228 0 min 0,000 mm 0,6 UV-I 152 W/m 7,4 C 5,1 C 20,9 km/h (4 Bft) 97,56 %
20.03.2017 09:24 10,1 C 84 % 1012,8 hPa 0,0 l/m 16,6 km/h (3 Bft) SW 223 0 min 0,000 mm 0,6 UV-I 162 W/m 7,5 C 4,6 C 24,1 km/h (4 Bft) 88,46 %
20.03.2017 09:26 10,1 C 84 % 1012,8 hPa 0,0 l/m 14,4 km/h (3 Bft) W-SW 249 0 min 0,000 mm 0,8 UV-I 193 W/m 7,5 C 5,5 C 22,5 km/h (4 Bft) 97,10 %
20.03.2017 09:28 10,2 C 85 % 1012,9 hPa 0,0 l/m 15,4 km/h (3 Bft) SW 232 0 min 0,000 mm 1,0 UV-I 254 W/m 7,8 C 5,2 C 25,7 km/h (4 Bft) 97,37 %
20.03.2017 09:30 10,3 C 85 % 1012,8 hPa 0,0 l/m 14,5 km/h (3 Bft) W 259 2 min 0,000 mm 1,1 UV-I 346 W/m 7,9 C 5,7 C 24,1 km/h (4 Bft) 94,92 %
20.03.2017 09:32 10,4 C 84 % 1012,8 hPa 0,0 l/m 12,6 km/h (3 Bft) SW 217 0 min 0,000 mm 0,9 UV-I 275 W/m 7,8 C 6,7 C 22,5 km/h (4 Bft) 92,68 %
20.03.2017 09:34 10,5 C 84 % 1012,8 hPa 0,0 l/m 14,1 km/h (3 Bft) SW 230 0 min 0,000 mm 0,9 UV-I 206 W/m 7,9 C 6,1 C 20,9 km/h (4 Bft) 96,23 %
20.03.2017 09:36 10,5 C 83 % 1012,9 hPa 0,0 l/m 14,7 km/h (3 Bft) W-SW 254 0 min 0,000 mm 0,9 UV-I 208 W/m 7,7 C 5,9 C 22,5 km/h (4 Bft) 97,44 %
20.03.2017 09:38 10,5 C 83 % 1012,8 hPa 0,0 l/m 14,4 km/h (3 Bft) W-SW 250 0 min 0,000 mm 0,9 UV-I 212 W/m 7,7 C 6,0 C 19,3 km/h (3 Bft) 97,62 %
20.03.2017 09:40 10,6 C 83 % 1012,8 hPa 0,0 l/m 13,9 km/h (3 Bft) SW 231 0 min 0,000 mm 0,9 UV-I 220 W/m 7,8 C 6,3 C 20,9 km/h (4 Bft) 96,55 %
20.03.2017 09:42 10,5 C 82 % 1012,8 hPa 0,0 l/m 11,0 km/h (2 Bft) W-SW 254 0 min 0,000 mm 0,8 UV-I 189 W/m 7,6 C 7,6 C 24,1 km/h (4 Bft) 92,31 %
20.03.2017 09:44 10,6 C 83 % 1012,8 hPa 0,0 l/m 16,9 km/h (3 Bft) W 271 0 min 0,000 mm 0,8 UV-I 203 W/m 7,8 C 5,1 C 25,7 km/h (4 Bft) 96,43 %
20.03.2017 09:46 10,6 C 82 % 1012,8 hPa 0,0 l/m 10,6 km/h (2 Bft) W 259 0 min 0,000 mm 0,8 UV-I 192 W/m 7,7 C 7,9 C 16,1 km/h (3 Bft) 90,24 %
20.03.2017 09:48 10,6 C 83 % 1012,9 hPa 0,0 l/m 15,1 km/h (3 Bft) W 261 0 min 0,000 mm 0,7 UV-I 172 W/m 7,8 C 5,8 C 20,9 km/h (4 Bft) 96,23 %
20.03.2017 09:50 10,6 C 82 % 1012,9 hPa 0,0 l/m 13,4 km/h (3 Bft) SW 229 0 min 0,000 mm 0,7 UV-I 161 W/m 7,7 C 6,5 C 20,9 km/h (4 Bft) 95,12 %
20.03.2017 09:52 10,6 C 82 % 1012,9 hPa 0,0 l/m 13,4 km/h (3 Bft) W-SW 239 0 min 0,000 mm 0,7 UV-I 151 W/m 7,7 C 6,5 C 19,3 km/h (3 Bft) 90,57 %
20.03.2017 09:54 10,6 C 82 % 1012,9 hPa 0,0 l/m 10,2 km/h (2 Bft) W 260 0 min 0,000 mm 0,7 UV-I 147 W/m 7,7 C 8,1 C 16,1 km/h (3 Bft) 95,00 %
20.03.2017 09:56 10,5 C 82 % 1012,9 hPa 0,0 l/m 18,3 km/h (3 Bft) W 263 0 min 0,000 mm 0,6 UV-I 135 W/m 7,6 C 4,5 C 25,7 km/h (4 Bft) 94,34 %
20.03.2017 09:58 10,5 C 82 % 1012,9 hPa 0,0 l/m 15,2 km/h (3 Bft) W-SW 246 0 min 0,000 mm 0,7 UV-I 151 W/m 7,6 C 5,7 C 19,3 km/h (3 Bft) 91,49 %
20.03.2017 10:00 10,5 C 82 % 1013,0 hPa 0,0 l/m 13,6 km/h (3 Bft) W-SW 251 0 min 0,102 mm 0,6 UV-I 128 W/m 7,6 C 6,3 C 19,3 km/h (3 Bft) 97,37 %
20.03.2017 10:02 10,5 C 82 % 1013,0 hPa 0,0 l/m 12,2 km/h (2 Bft) W-SW 248 0 min 0,000 mm 0,5 UV-I 114 W/m 7,6 C 7,0 C 17,7 km/h (3 Bft) 88,68 %
20.03.2017 10:04 10,4 C 82 % 1013,0 hPa 0,0 l/m 12,4 km/h (3 Bft) W 269 0 min 0,000 mm 0,5 UV-I 121 W/m 7,5 C 6,8 C 17,7 km/h (3 Bft) 95,45 %
20.03.2017 10:06 10,4 C 82 % 1013,0 hPa 0,0 l/m 13,1 km/h (3 Bft) W-SW 246 0 min 0,000 mm 0,5 UV-I 117 W/m 7,5 C 6,4 C 19,3 km/h (3 Bft) 90,91 %
20.03.2017 10:08 10,4 C 81 % 1013,0 hPa 0,0 l/m 13,3 km/h (3 Bft) W 265 0 min 0,000 mm 0,5 UV-I 111 W/m 7,3 C 6,4 C 22,5 km/h (4 Bft) 92,45 %
20.03.2017 10:10 10,4 C 80 % 1013,0 hPa 0,0 l/m 14,4 km/h (3 Bft) W 269 0 min 0,000 mm 0,6 UV-I 129 W/m 7,1 C 5,9 C 20,9 km/h (4 Bft) 95,45 %
20.03.2017 10:12 10,4 C 80 % 1013,0 hPa 0,0 l/m 13,9 km/h (3 Bft) W 273 0 min 0,000 mm 0,6 UV-I 131 W/m 7,1 C 6,1 C 20,9 km/h (4 Bft) 90,00 %
20.03.2017 10:14 10,4 C 80 % 1013,0 hPa 0,0 l/m 14,8 km/h (3 Bft) W 261 0 min 0,000 mm 0,6 UV-I 123 W/m 7,1 C 5,7 C 27,4 km/h (4 Bft) 95,74 %
20.03.2017 10:16 10,4 C 80 % 1013,1 hPa 0,0 l/m 12,1 km/h (2 Bft) SW 236 0 min 0,000 mm 0,5 UV-I 114 W/m 7,1 C 6,9 C 20,9 km/h (4 Bft) 92,31 %
20.03.2017 10:18 10,4 C 80 % 1013,1 hPa 0,0 l/m 10,4 km/h (2 Bft) S-SW 197 0 min 0,000 mm 0,6 UV-I 128 W/m 7,1 C 7,8 C 14,5 km/h (3 Bft) 94,23 %
20.03.2017 10:20 10,4 C 81 % 1013,1 hPa 0,0 l/m 13,5 km/h (3 Bft) W-SW 258 0 min 0,000 mm 0,6 UV-I 135 W/m 7,3 C 6,3 C 19,3 km/h (3 Bft) 95,24 %
20.03.2017 10:22 10,5 C 81 % 1013,1 hPa 0,0 l/m 13,0 km/h (3 Bft) W-SW 252 0 min 0,000 mm 0,7 UV-I 143 W/m 7,4 C 6,6 C 19,3 km/h (3 Bft) 98,18 %
20.03.2017 10:24 10,5 C 80 % 1013,1 hPa 0,0 l/m 12,3 km/h (3 Bft) W 266 0 min 0,000 mm 0,7 UV-I 145 W/m 7,2 C 6,9 C 17,7 km/h (3 Bft) 94,87 %
20.03.2017 10:26 10,5 C 81 % 1013,1 hPa 0,0 l/m 10,1 km/h (2 Bft) W 262 0 min 0,000 mm 0,7 UV-I 140 W/m 7,4 C 8,1 C 14,5 km/h (3 Bft) 92,00 %
20.03.2017 10:28 10,6 C 81 % 1013,1 hPa 0,0 l/m 8,9 km/h (2 Bft) W-SW 251 0 min 0,000 mm 0,7 UV-I 151 W/m 7,5 C 8,9 C 16,1 km/h (3 Bft) 96,00 %
20.03.2017 10:30 10,6 C 80 % 1013,1 hPa 0,0 l/m 12,3 km/h (3 Bft) W 259 0 min 0,000 mm 0,8 UV-I 167 W/m 7,3 C 7,1 C 24,1 km/h (4 Bft) 97,56 %
20.03.2017 10:32 10,6 C 80 % 1013,0 hPa 0,0 l/m 12,8 km/h (3 Bft) W-SW 248 0 min 0,000 mm 0,8 UV-I 164 W/m 7,3 C 6,8 C 20,9 km/h (4 Bft) 98,04 %
20.03.2017 10:34 10,6 C 80 % 1013,1 hPa 0,0 l/m 11,7 km/h (2 Bft) W-SW 249 0 min 0,000 mm 0,8 UV-I 169 W/m 7,3 C 7,4 C 17,7 km/h (3 Bft) 95,12 %
20.03.2017 10:36 10,6 C 80 % 1013,1 hPa 0,0 l/m 9,8 km/h (2 Bft) SW 230 0 min 0,000 mm 0,8 UV-I 168 W/m 7,3 C 8,4 C 17,7 km/h (3 Bft) 100,00 %
20.03.2017 10:38 10,7 C 81 % 1013,1 hPa 0,0 l/m 7,5 km/h (2 Bft) W-SW 240 0 min 0,000 mm 0,8 UV-I 162 W/m 7,6 C 9,9 C 11,3 km/h (2 Bft) 97,37 %
20.03.2017 10:40 10,7 C 81 % 1013,1 hPa 0,0 l/m 10,7 km/h (2 Bft) SW 235 0 min 0,000 mm 0,7 UV-I 150 W/m 7,6 C 8,0 C 16,1 km/h (3 Bft) 98,11 %
20.03.2017 10:42 10,7 C 81 % 1013,1 hPa 0,0 l/m 8,4 km/h (2 Bft) W-SW 254 0 min 0,000 mm 0,8 UV-I 157 W/m 7,6 C 9,3 C 12,9 km/h (3 Bft) 100,00 %
20.03.2017 10:44 10,7 C 81 % 1013,1 hPa 0,0 l/m 7,2 km/h (2 Bft) W 260 0 min 0,000 mm 0,8 UV-I 152 W/m 7,6 C 10,1 C 12,9 km/h (3 Bft) 97,56 %
20.03.2017 10:46 10,7 C 80 % 1013,1 hPa 0,0 l/m 12,1 km/h (2 Bft) W-NW 284 0 min 0,000 mm 0,8 UV-I 150 W/m 7,4 C 7,3 C 19,3 km/h (3 Bft) 100,00 %
20.03.2017 10:48 10,7 C 80 % 1013,1 hPa 0,0 l/m 12,6 km/h (3 Bft) SW 232 0 min 0,000 mm 0,9 UV-I 179 W/m 7,4 C 7,0 C 20,9 km/h (4 Bft) 96,92 %
20.03.2017 10:50 10,7 C 79 % 1013,1 hPa 0,0 l/m 15,9 km/h (3 Bft) W-SW 240 0 min 0,000 mm 0,9 UV-I 188 W/m 7,2 C 5,6 C 22,5 km/h (4 Bft) 97,56 %
20.03.2017 10:52 10,7 C 78 % 1013,0 hPa 0,0 l/m 14,3 km/h (3 Bft) W 268 0 min 0,000 mm 1,0 UV-I 213 W/m 7,0 C 6,3 C 22,5 km/h (4 Bft) 100,00 %
20.03.2017 10:54 10,7 C 78 % 1013,0 hPa 0,0 l/m 15,5 km/h (3 Bft) W 271 0 min 0,000 mm 1,0 UV-I 217 W/m 7,0 C 5,8 C 24,1 km/h (4 Bft) 98,51 %
20.03.2017 10:56 10,7 C 79 % 1013,0 hPa 0,0 l/m 11,0 km/h (2 Bft) W-SW 252 0 min 0,000 mm 1,2 UV-I 253 W/m 7,2 C 7,8 C 17,7 km/h (3 Bft) 98,00 %
20.03.2017 10:58 10,7 C 79 % 1013,0 hPa 0,0 l/m 13,1 km/h (3 Bft) W-SW 255 0 min 0,000 mm 1,2 UV-I 266 W/m 7,2 C 6,8 C 17,7 km/h (3 Bft) 100,00 %
20.03.2017 11:00 10,8 C 80 % 1013,0 hPa 0,0 l/m 12,3 km/h (3 Bft) W-SW 246 0 min 0,101 mm 1,2 UV-I 266 W/m 7,5 C 7,3 C 19,3 km/h (3 Bft) 100,00 %
20.03.2017 11:02 10,8 C 80 % 1013,0 hPa 0,0 l/m 13,2 km/h (3 Bft) W-SW 255 0 min 0,000 mm 1,1 UV-I 250 W/m 7,5 C 6,9 C 20,9 km/h (4 Bft) 94,34 %
20.03.2017 11:04 10,7 C 80 % 1013,0 hPa 0,0 l/m 14,8 km/h (3 Bft) W 273 0 min 0,000 mm 1,0 UV-I 199 W/m 7,4 C 6,1 C 20,9 km/h (4 Bft) 100,00 %
20.03.2017 11:06 10,6 C 81 % 1013,0 hPa 0,0 l/m 12,2 km/h (2 Bft) W-SW 251 0 min 0,000 mm 0,9 UV-I 187 W/m 7,5 C 7,1 C 17,7 km/h (3 Bft) 98,11 %
20.03.2017 11:08 10,5 C 82 % 1013,0 hPa 0,0 l/m 12,5 km/h (3 Bft) SW 234 0 min 0,000 mm 1,0 UV-I 199 W/m 7,6 C 6,8 C 24,1 km/h (4 Bft) 98,00 %
20.03.2017 11:10 10,5 C 81 % 1013,0 hPa 0,0 l/m 14,8 km/h (3 Bft) S-SW 209 0 min 0,000 mm 1,0 UV-I 186 W/m 7,4 C 5,8 C 22,5 km/h (4 Bft) 97,73 %
20.03.2017 11:12 10,4 C 81 % 1012,9 hPa 0,0 l/m 17,4 km/h (3 Bft) W-SW 246 0 min 0,000 mm 0,9 UV-I 170 W/m 7,3 C 4,7 C 25,7 km/h (4 Bft) 97,56 %
20.03.2017 11:14 10,4 C 81 % 1012,8 hPa 0,0 l/m 16,9 km/h (3 Bft) W-SW 240 0 min 0,000 mm 1,0 UV-I 180 W/m 7,3 C 4,9 C 24,1 km/h (4 Bft) 97,87 %
20.03.2017 11:16 10,4 C 82 % 1012,9 hPa 0,0 l/m 11,4 km/h (2 Bft) W-SW 258 0 min 0,000 mm 1,0 UV-I 194 W/m 7,5 C 7,3 C 19,3 km/h (3 Bft) 100,00 %
20.03.2017 11:18 10,4 C 82 % 1012,9 hPa 0,0 l/m 11,1 km/h (2 Bft) W-SW 246 0 min 0,000 mm 0,9 UV-I 167 W/m 7,5 C 7,4 C 16,1 km/h (3 Bft) 100,00 %
20.03.2017 11:20 10,4 C 82 % 1012,9 hPa 0,0 l/m 9,8 km/h (2 Bft) S-SW 212 0 min 0,000 mm 0,7 UV-I 133 W/m 7,5 C 8,2 C 14,5 km/h (3 Bft) 100,00 %
20.03.2017 11:22 10,4 C 82 % 1012,9 hPa 0,0 l/m 10,3 km/h (2 Bft) W 276 0 min 0,000 mm 0,8 UV-I 139 W/m 7,5 C 7,9 C 19,3 km/h (3 Bft) 100,00 %
20.03.2017 11:24 10,4 C 83 % 1012,8 hPa 0,0 l/m 6,3 km/h (2 Bft) SW 221 0 min 0,000 mm 0,9 UV-I 169 W/m 7,6 C 10,4 C 11,3 km/h (2 Bft) 97,87 %
20.03.2017 11:26 10,3 C 83 % 1012,8 hPa 0,0 l/m 11,1 km/h (2 Bft) W-SW 254 0 min 0,000 mm 1,3 UV-I 264 W/m 7,5 C 7,3 C 19,3 km/h (3 Bft) 100,00 %
20.03.2017 11:28 10,3 C 83 % 1012,8 hPa 0,0 l/m 11,2 km/h (2 Bft) W-NW 290 0 min 0,000 mm 1,0 UV-I 195 W/m 7,5 C 7,3 C 16,1 km/h (3 Bft) 97,87 %
20.03.2017 11:30 10,3 C 83 % 1012,8 hPa 0,0 l/m 11,6 km/h (2 Bft) W 261 0 min 0,000 mm 0,7 UV-I 135 W/m 7,5 C 7,1 C 16,1 km/h (3 Bft) 97,56 %
20.03.2017 11:32 10,3 C 82 % 1012,8 hPa 0,0 l/m 12,9 km/h (3 Bft) W-SW 252 0 min 0,000 mm 0,7 UV-I 125 W/m 7,4 C 6,4 C 20,9 km/h (4 Bft) 98,11 %
20.03.2017 11:34 10,2 C 82 % 1012,8 hPa 0,0 l/m 11,4 km/h (2 Bft) S-SW 198 0 min 0,000 mm 0,7 UV-I 133 W/m 7,3 C 7,1 C 17,7 km/h (3 Bft) 95,45 %
20.03.2017 11:36 10,2 C 83 % 1012,8 hPa 0,0 l/m 10,3 km/h (2 Bft) W 261 0 min 0,000 mm 0,8 UV-I 155 W/m 7,4 C 7,6 C 16,1 km/h (3 Bft) 95,74 %
20.03.2017 11:38 10,2 C 84 % 1012,8 hPa 0,0 l/m 9,8 km/h (2 Bft) W 278 0 min 0,000 mm 1,1 UV-I 209 W/m 7,6 C 7,9 C 12,9 km/h (3 Bft) 94,87 %
20.03.2017 11:40 10,2 C 84 % 1012,7 hPa 0,0 l/m 11,0 km/h (2 Bft) SW 223 0 min 0,000 mm 1,4 UV-I 268 W/m 7,6 C 7,3 C 17,7 km/h (3 Bft) 98,11 %
20.03.2017 11:42 10,2 C 83 % 1012,7 hPa 0,0 l/m 10,5 km/h (2 Bft) SW 219 0 min 0,000 mm 1,1 UV-I 212 W/m 7,4 C 7,5 C 14,5 km/h (3 Bft) 93,62 %
20.03.2017 11:44 10,3 C 84 % 1012,7 hPa 0,0 l/m 11,0 km/h (2 Bft) W-SW 258 0 min 0,000 mm 0,9 UV-I 175 W/m 7,7 C 7,4 C 19,3 km/h (3 Bft) 95,12 %
20.03.2017 11:46 10,3 C 84 % 1012,7 hPa 0,0 l/m 11,8 km/h (2 Bft) S-SW 207 0 min 0,000 mm 0,9 UV-I 174 W/m 7,7 C 7,0 C 17,7 km/h (3 Bft) 92,86 %
20.03.2017 11:48 10,3 C 85 % 1012,7 hPa 0,0 l/m 7,5 km/h (2 Bft) SW 234 0 min 0,000 mm 1,0 UV-I 182 W/m 7,9 C 9,5 C 16,1 km/h (3 Bft) 90,24 %
20.03.2017 11:50 10,3 C 85 % 1012,7 hPa 0,0 l/m 8,0 km/h (2 Bft) W-SW 256 0 min 0,000 mm 1,0 UV-I 193 W/m 7,9 C 9,2 C 16,1 km/h (3 Bft) 94,34 %
20.03.2017 11:52 10,3 C 84 % 1012,6 hPa 0,0 l/m 12,2 km/h (2 Bft) W-SW 238 0 min 0,000 mm 1,0 UV-I 204 W/m 7,7 C 6,8 C 17,7 km/h (3 Bft) 97,56 %
20.03.2017 11:54 10,3 C 84 % 1012,7 hPa 0,0 l/m 11,5 km/h (2 Bft) W-SW 243 0 min 0,000 mm 1,0 UV-I 204 W/m 7,7 C 7,1 C 17,7 km/h (3 Bft) 96,00 %
20.03.2017 11:56 10,4 C 84 % 1012,6 hPa 0,0 l/m 10,0 km/h (2 Bft) W-SW 252 0 min 0,000 mm 1,2 UV-I 236 W/m 7,8 C 8,0 C 16,1 km/h (3 Bft) 96,00 %
20.03.2017 11:58 10,5 C 84 % 1012,6 hPa 0,0 l/m 8,8 km/h (2 Bft) W 265 0 min 0,000 mm 1,3 UV-I 218 W/m 7,9 C 8,9 C 12,9 km/h (3 Bft) 97,56 %
20.03.2017 12:00 10,6 C 84 % 1012,6 hPa 0,0 l/m 8,4 km/h (2 Bft) W-SW 255 0 min 0,000 mm 1,1 UV-I 200 W/m 8,0 C 9,2 C 14,5 km/h (3 Bft) 95,45 %
20.03.2017 12:02 10,5 C 83 % 1012,6 hPa 0,0 l/m 14,4 km/h (3 Bft) W-SW 250 0 min 0,102 mm 0,9 UV-I 151 W/m 7,7 C 6,0 C 19,3 km/h (3 Bft) 92,86 %
20.03.2017 12:04 10,5 C 83 % 1012,5 hPa 0,0 l/m 11,1 km/h (2 Bft) W-SW 241 0 min 0,000 mm 1,1 UV-I 150 W/m 7,7 C 7,5 C 16,1 km/h (3 Bft) 95,45 %
20.03.2017 12:06 10,6 C 84 % 1012,4 hPa 0,0 l/m 7,9 km/h (2 Bft) W 279 0 min 0,000 mm 1,7 UV-I 280 W/m 8,0 C 9,5 C 11,3 km/h (2 Bft) 95,12 %
20.03.2017 12:08 10,7 C 84 % 1012,4 hPa 0,0 l/m 7,3 km/h (2 Bft) SW 230 0 min 0,000 mm 1,7 UV-I 356 W/m 8,1 C 10,1 C 11,3 km/h (2 Bft) 94,00 %
20.03.2017 12:10 10,9 C 83 % 1012,4 hPa 0,0 l/m 10,7 km/h (2 Bft) W 280 2 min 0,000 mm 1,9 UV-I 416 W/m 8,1 C 8,2 C 17,7 km/h (3 Bft) 88,64 %
20.03.2017 12:12 11,0 C 82 % 1012,4 hPa 0,0 l/m 11,0 km/h (2 Bft) W 274 2 min 0,000 mm 2,0 UV-I 424 W/m 8,0 C 8,2 C 19,3 km/h (3 Bft) 94,34 %
20.03.2017 12:14 11,1 C 82 % 1012,4 hPa 0,0 l/m 11,4 km/h (2 Bft) W 264 2 min 0,000 mm 2,0 UV-I 446 W/m 8,1 C 8,1 C 17,7 km/h (3 Bft) 100,00 %
20.03.2017 12:16 11,3 C 82 % 1012,3 hPa 0,0 l/m 11,6 km/h (2 Bft) W-SW 253 2 min 0,000 mm 2,1 UV-I 447 W/m 8,3 C 8,2 C 17,7 km/h (3 Bft) 97,62 %
20.03.2017 12:18 11,3 C 81 % 1012,3 hPa 0,0 l/m 14,4 km/h (3 Bft) W 268 2 min 0,000 mm 2,1 UV-I 476 W/m 8,2 C 7,0 C 19,3 km/h (3 Bft) 96,55 %
20.03.2017 12:20 11,4 C 81 % 1012,3 hPa 0,0 l/m 11,5 km/h (2 Bft) W-SW 254 2 min 0,000 mm 2,1 UV-I 461 W/m 8,3 C 8,4 C 17,7 km/h (3 Bft) 92,31 %
20.03.2017 12:22 11,5 C 81 % 1012,3 hPa 0,0 l/m 11,9 km/h (2 Bft) W-SW 248 2 min 0,000 mm 2,0 UV-I 420 W/m 8,4 C 8,3 C 19,3 km/h (3 Bft) 96,30 %
20.03.2017 12:24 11,6 C 80 % 1012,3 hPa 0,0 l/m 11,2 km/h (2 Bft) W 262 2 min 0,000 mm 2,1 UV-I 424 W/m 8,3 C 8,7 C 17,7 km/h (3 Bft) 92,00 %
20.03.2017 12:26 11,6 C 80 % 1012,3 hPa 0,0 l/m 11,5 km/h (2 Bft) W-NW 284 2 min 0,000 mm 2,2 UV-I 432 W/m 8,3 C 8,6 C 17,7 km/h (3 Bft) 100,00 %
20.03.2017 12:28 11,6 C 80 % 1012,3 hPa 0,0 l/m 8,4 km/h (2 Bft) W 266 2 min 0,000 mm 2,3 UV-I 447 W/m 8,3 C 10,3 C 12,9 km/h (3 Bft) 95,74 %
20.03.2017 12:30 11,7 C 80 % 1012,3 hPa 0,0 l/m 9,5 km/h (2 Bft) W-SW 257 2 min 0,000 mm 2,5 UV-I 484 W/m 8,4 C 9,7 C 14,5 km/h (3 Bft) 98,00 %
20.03.2017 12:32 11,8 C 80 % 1012,3 hPa 0,0 l/m 9,2 km/h (2 Bft) W 278 2 min 0,000 mm 2,7 UV-I 477 W/m 8,5 C 10,0 C 17,7 km/h (3 Bft) 100,00 %
20.03.2017 12:34 11,9 C 80 % 1012,2 hPa 0,0 l/m 11,2 km/h (2 Bft) W-SW 258 2 min 0,000 mm 3,0 UV-I 532 W/m 8,6 C 9,1 C 16,1 km/h (3 Bft) 98,11 %
20.03.2017 12:36 12,1 C 79 % 1012,2 hPa 0,0 l/m 10,4 km/h (2 Bft) W 266 2 min 0,000 mm 2,8 UV-I 517 W/m 8,6 C 9,7 C 14,5 km/h (3 Bft) 96,00 %
20.03.2017 12:38 12,2 C 79 % 1012,2 hPa 0,0 l/m 9,3 km/h (2 Bft) W-NW 294 2 min 0,000 mm 3,0 UV-I 661 W/m 8,7 C 10,4 C 20,9 km/h (4 Bft) 97,56 %
20.03.2017 12:40 12,3 C 79 % 1012,2 hPa 0,0 l/m 8,4 km/h (2 Bft) W 261 2 min 0,000 mm 2,6 UV-I 652 W/m 8,8 C 11,0 C 14,5 km/h (3 Bft) 100,00 %
20.03.2017 12:43 12,3 C 79 % 1012,1 hPa 0,0 l/m 9,9 km/h (2 Bft) W 272 3 min 0,000 mm 2,3 UV-I 477 W/m 8,8 C 10,2 C 17,7 km/h (3 Bft) 98,70 %
20.03.2017 12:44 12,3 C 79 % 1012,1 hPa 0,0 l/m 13,2 km/h (3 Bft) W-SW 250 1 min 0,000 mm 2,3 UV-I 436 W/m 8,8 C 8,6 C 16,1 km/h (3 Bft) 92,86 %
20.03.2017 12:46 12,3 C 80 % 1012,1 hPa 0,0 l/m 6,5 km/h (2 Bft) W-SW 242 2 min 0,000 mm 2,3 UV-I 526 W/m 8,9 C 12,3 C 12,9 km/h (3 Bft) 98,11 %
20.03.2017 12:48 12,5 C 80 % 1012,1 hPa 0,0 l/m 7,9 km/h (2 Bft) W-NW 283 2 min 0,000 mm 2,2 UV-I 568 W/m 9,1 C 11,5 C 17,7 km/h (3 Bft) 96,23 %
20.03.2017 12:50 12,5 C 79 % 1012,1 hPa 0,0 l/m 8,3 km/h (2 Bft) W-NW 284 2 min 0,000 mm 2,5 UV-I 534 W/m 9,0 C 11,3 C 14,5 km/h (3 Bft) 97,37 %
20.03.2017 12:52 12,6 C 79 % 1012,1 hPa 0,0 l/m 11,2 km/h (2 Bft) W-SW 251 2 min 0,000 mm 2,6 UV-I 513 W/m 9,1 C 9,9 C 16,1 km/h (3 Bft) 98,11 %
20.03.2017 12:54 12,6 C 80 % 1012,1 hPa 0,0 l/m 9,7 km/h (2 Bft) S 177 2 min 0,000 mm 2,7 UV-I 764 W/m 9,2 C 10,6 C 14,5 km/h (3 Bft) 100,00 %
20.03.2017 12:56 12,6 C 79 % 1012,0 hPa 0,0 l/m 9,0 km/h (2 Bft) W-SW 250 2 min 0,000 mm 2,6 UV-I 720 W/m 9,1 C 11,0 C 14,5 km/h (3 Bft) 100,00 %
20.03.2017 12:58 12,7 C 79 % 1012,0 hPa 0,0 l/m 10,3 km/h (2 Bft) W 261 2 min 0,000 mm 2,4 UV-I 551 W/m 9,2 C 10,4 C 14,5 km/h (3 Bft) 100,00 %
20.03.2017 13:00 12,7 C 78 % 1012,0 hPa 0,0 l/m 11,1 km/h (2 Bft) W 271 2 min 0,000 mm 2,3 UV-I 504 W/m 9,0 C 10,0 C 17,7 km/h (3 Bft) 100,00 %
20.03.2017 13:02 12,6 C 78 % 1012,0 hPa 0,0 l/m 5,9 km/h (2 Bft) W 278 2 min 0,254 mm 1,9 UV-I 476 W/m 8,9 C 12,6 C 11,3 km/h (2 Bft) 97,87 %
20.03.2017 13:04 12,6 C 80 % 1011,9 hPa 0,0 l/m 5,4 km/h (1 Bft) W 273 2 min 0,000 mm 2,1 UV-I 363 W/m 9,2 C 12,6 C 12,9 km/h (3 Bft) 97,73 %
20.03.2017 13:06 12,7 C 80 % 1011,9 hPa 0,0 l/m 10,0 km/h (2 Bft) W 265 2 min 0,000 mm 2,3 UV-I 578 W/m 9,3 C 10,6 C 12,9 km/h (3 Bft) 98,11 %
20.03.2017 13:08 12,7 C 78 % 1011,9 hPa 0,0 l/m 9,9 km/h (2 Bft) W-SW 238 2 min 0,000 mm 2,2 UV-I 419 W/m 9,0 C 10,6 C 14,5 km/h (3 Bft) 100,00 %
20.03.2017 13:10 12,7 C 78 % 1011,9 hPa 0,0 l/m 13,0 km/h (3 Bft) W-NW 290 2 min 0,000 mm 2,0 UV-I 429 W/m 9,0 C 9,2 C 20,9 km/h (4 Bft) 95,65 %
20.03.2017 13:12 12,7 C 80 % 1011,9 hPa 0,0 l/m 12,2 km/h (2 Bft) W 266 2 min 0,000 mm 1,8 UV-I 389 W/m 9,3 C 9,5 C 20,9 km/h (4 Bft) 97,30 %
20.03.2017 13:14 12,7 C 79 % 1011,9 hPa 0,0 l/m 7,2 km/h (2 Bft) SW 215 2 min 0,000 mm 1,8 UV-I 399 W/m 9,2 C 12,2 C 12,9 km/h (3 Bft) 97,56 %
20.03.2017 13:16 12,7 C 79 % 1011,9 hPa 0,0 l/m 15,1 km/h (3 Bft) W-SW 244 2 min 0,000 mm 1,8 UV-I 404 W/m 9,2 C 8,4 C 20,9 km/h (4 Bft) 95,45 %
20.03.2017 13:18 12,7 C 78 % 1011,9 hPa 0,0 l/m 13,0 km/h (3 Bft) W-SW 248 0 min 0,000 mm 1,5 UV-I 350 W/m 9,0 C 9,2 C 17,7 km/h (3 Bft) 92,86 %
20.03.2017 13:20 12,7 C 79 % 1011,8 hPa 0,0 l/m 6,3 km/h (2 Bft) W-SW 244 0 min 0,000 mm 1,4 UV-I 316 W/m 9,2 C 12,7 C 12,9 km/h (3 Bft) 100,00 %
20.03.2017 13:22 12,7 C 80 % 1011,7 hPa 0,0 l/m 5,6 km/h (1 Bft) W 269 0 min 0,000 mm 1,5 UV-I 312 W/m 9,3 C 12,7 C 14,5 km/h (3 Bft) 100,00 %
20.03.2017 13:24 12,7 C 79 % 1011,7 hPa 0,0 l/m 9,0 km/h (2 Bft) W-SW 255 0 min 0,000 mm 1,5 UV-I 318 W/m 9,2 C 11,1 C 14,5 km/h (3 Bft) 100,00 %
20.03.2017 13:26 12,7 C 79 % 1011,6 hPa 0,0 l/m 10,6 km/h (2 Bft) W 262 2 min 0,000 mm 1,6 UV-I 350 W/m 9,2 C 10,3 C 14,5 km/h (3 Bft) 100,00 %
20.03.2017 13:28 12,7 C 79 % 1011,7 hPa 0,0 l/m 7,0 km/h (2 Bft) W-SW 240 2 min 0,000 mm 1,7 UV-I 396 W/m 9,2 C 12,3 C 14,5 km/h (3 Bft) 98,21 %
20.03.2017 13:30 12,8 C 79 % 1011,7 hPa 0,0 l/m 8,6 km/h (2 Bft) W 275 2 min 0,000 mm 1,8 UV-I 404 W/m 9,2 C 11,4 C 14,5 km/h (3 Bft) 97,56 %
20.03.2017 13:32 12,9 C 80 % 1011,7 hPa 0,0 l/m 10,6 km/h (2 Bft) W-SW 242 2 min 0,000 mm 1,7 UV-I 411 W/m 9,5 C 10,5 C 22,5 km/h (4 Bft) 96,00 %
20.03.2017 13:34 12,9 C 78 % 1011,6 hPa 0,0 l/m 11,2 km/h (2 Bft) W-SW 249 2 min 0,000 mm 1,7 UV-I 390 W/m 9,2 C 10,2 C 20,9 km/h (4 Bft) 96,15 %
20.03.2017 13:36 12,9 C 78 % 1011,6 hPa 0,0 l/m 11,8 km/h (2 Bft) W-SW 250 2 min 0,000 mm 1,7 UV-I 349 W/m 9,2 C 9,9 C 16,1 km/h (3 Bft) 97,22 %
20.03.2017 13:38 12,9 C 78 % 1011,6 hPa 0,0 l/m 6,6 km/h (2 Bft) W 269 0 min 0,000 mm 1,5 UV-I 330 W/m 9,2 C 12,8 C 11,3 km/h (2 Bft) 95,74 %
20.03.2017 13:40 12,9 C 79 % 1011,6 hPa 0,0 l/m 4,9 km/h (1 Bft) W-SW 254 0 min 0,000 mm 1,4 UV-I 303 W/m 9,3 C 12,9 C 8,0 km/h (2 Bft) 94,64 %
20.03.2017 13:42 13,1 C 78 % 1011,5 hPa 0,0 l/m 11,1 km/h (2 Bft) W 265 0 min 0,000 mm 1,3 UV-I 301 W/m 9,4 C 10,5 C 19,3 km/h (3 Bft) 97,73 %
20.03.2017 13:44 12,9 C 78 % 1011,5 hPa 0,0 l/m 11,5 km/h (2 Bft) W-NW 290 0 min 0,000 mm 1,4 UV-I 314 W/m 9,2 C 10,1 C 17,7 km/h (3 Bft) 96,00 %
20.03.2017 13:46 12,9 C 78 % 1011,5 hPa 0,0 l/m 13,0 km/h (3 Bft) W-SW 246 0 min 0,000 mm 1,4 UV-I 325 W/m 9,2 C 9,4 C 16,1 km/h (3 Bft) 93,75 %
20.03.2017 13:48 12,9 C 77 % 1011,5 hPa 0,0 l/m 12,1 km/h (2 Bft) W-SW 249 0 min 0,000 mm 1,3 UV-I 293 W/m 9,0 C 9,8 C 20,9 km/h (4 Bft) 94,92 %
20.03.2017 13:50 12,9 C 78 % 1011,4 hPa 0,0 l/m 9,6 km/h (2 Bft) SW 229 0 min 0,000 mm 1,3 UV-I 299 W/m 9,2 C 11,0 C 14,5 km/h (3 Bft) 85,37 %
20.03.2017 13:52 12,9 C 78 % 1011,4 hPa 0,0 l/m 10,5 km/h (2 Bft) W-SW 256 0 min 0,000 mm 1,3 UV-I 334 W/m 9,2 C 10,5 C 14,5 km/h (3 Bft) 93,22 %
20.03.2017 13:54 12,9 C 77 % 1011,4 hPa 0,0 l/m 8,9 km/h (2 Bft) W-SW 243 2 min 0,000 mm 1,4 UV-I 356 W/m 9,0 C 11,4 C 17,7 km/h (3 Bft) 94,74 %
20.03.2017 13:56 12,9 C 77 % 1011,4 hPa 0,0 l/m 7,5 km/h (2 Bft) W-SW 244 2 min 0,000 mm 1,5 UV-I 377 W/m 9,0 C 12,2 C 12,9 km/h (3 Bft) 94,34 %
20.03.2017 13:58 13,1 C 78 % 1011,3 hPa 0,0 l/m 7,8 km/h (2 Bft) W-SW 239 2 min 0,000 mm 1,7 UV-I 480 W/m 9,4 C 12,2 C 14,5 km/h (3 Bft) 90,91 %
20.03.2017 14:00 13,3 C 77 % 1011,3 hPa 0,0 l/m 12,4 km/h (3 Bft) W 268 2 min 0,000 mm 1,8 UV-I 493 W/m 9,4 C 10,1 C 17,7 km/h (3 Bft) 94,74 %
20.03.2017 14:02 13,3 C 76 % 1011,3 hPa 0,0 l/m 14,4 km/h (3 Bft) W-NW 289 2 min 0,203 mm 1,8 UV-I 464 W/m 9,2 C 9,4 C 22,5 km/h (4 Bft) 94,64 %
20.03.2017 14:04 13,3 C 76 % 1011,3 hPa 0,0 l/m 8,8 km/h (2 Bft) W 267 2 min 0,000 mm 1,7 UV-I 435 W/m 9,2 C 11,9 C 16,1 km/h (3 Bft) 95,12 %
20.03.2017 14:06 13,4 C 77 % 1011,1 hPa 0,0 l/m 8,2 km/h (2 Bft) W-NW 290 2 min 0,000 mm 1,7 UV-I 447 W/m 9,5 C 12,3 C 12,9 km/h (3 Bft) 97,87 %
20.03.2017 14:08 13,4 C 76 % 1011,2 hPa 0,0 l/m 7,9 km/h (2 Bft) W 277 2 min 0,000 mm 2,1 UV-I 556 W/m 9,3 C 12,5 C 14,5 km/h (3 Bft) 93,62 %
20.03.2017 14:10 13,6 C 75 % 1011,1 hPa 0,0 l/m 11,4 km/h (2 Bft) S-SW 198 2 min 0,000 mm 2,1 UV-I 710 W/m 9,3 C 10,9 C 19,3 km/h (3 Bft) 96,23 %
20.03.2017 14:12 13,7 C 75 % 1011,1 hPa 0,0 l/m 12,2 km/h (2 Bft) W-NW 285 2 min 0,000 mm 2,1 UV-I 690 W/m 9,3 C 10,7 C 17,7 km/h (3 Bft) 97,62 %
20.03.2017 14:14 13,7 C 75 % 1011,0 hPa 0,0 l/m 6,5 km/h (2 Bft) W 261 2 min 0,000 mm 2,0 UV-I 664 W/m 9,3 C 13,7 C 11,3 km/h (2 Bft) 92,31 %
20.03.2017 14:16 13,8 C 75 % 1011,0 hPa 0,0 l/m 10,0 km/h (2 Bft) W-SW 258 2 min 0,000 mm 2,0 UV-I 649 W/m 9,4 C 11,8 C 16,1 km/h (3 Bft) 92,31 %
20.03.2017 14:18 13,8 C 74 % 1011,0 hPa 0,0 l/m 8,0 km/h (2 Bft) SW 228 2 min 0,000 mm 1,9 UV-I 578 W/m 9,2 C 12,8 C 14,5 km/h (3 Bft) 98,21 %
20.03.2017 14:20 13,8 C 76 % 1011,0 hPa 0,0 l/m 6,8 km/h (2 Bft) W-SW 256 2 min 0,000 mm 1,8 UV-I 414 W/m 9,6 C 13,6 C 11,3 km/h (2 Bft) 94,00 %
20.03.2017 14:22 13,9 C 76 % 1011,0 hPa 0,0 l/m 7,2 km/h (2 Bft) W-SW 254 0 min 0,000 mm 1,4 UV-I 279 W/m 9,7 C 13,4 C 14,5 km/h (3 Bft) 94,74 %
20.03.2017 14:24 13,8 C 74 % 1011,0 hPa 0,0 l/m 12,4 km/h (3 Bft) S-SW 193 0 min 0,000 mm 1,3 UV-I 218 W/m 9,2 C 10,7 C 17,7 km/h (3 Bft) 95,12 %
20.03.2017 14:26 13,7 C 75 % 1011,0 hPa 0,0 l/m 11,3 km/h (2 Bft) SW 219 2 min 0,000 mm 1,5 UV-I 316 W/m 9,3 C 11,1 C 16,1 km/h (3 Bft) 97,56 %
20.03.2017 14:28 13,6 C 74 % 1011,1 hPa 0,0 l/m 8,8 km/h (2 Bft) W 265 2 min 0,000 mm 1,3 UV-I 364 W/m 9,1 C 12,2 C 14,5 km/h (3 Bft) 94,34 %
20.03.2017 14:30 13,6 C 74 % 1011,1 hPa 0,0 l/m 11,7 km/h (2 Bft) W 279 2 min 0,000 mm 1,4 UV-I 353 W/m 9,1 C 10,8 C 17,7 km/h (3 Bft) 92,11 %
20.03.2017 14:32 13,6 C 75 % 1011,0 hPa 0,0 l/m 8,3 km/h (2 Bft) W 275 2 min 0,000 mm 1,6 UV-I 457 W/m 9,3 C 12,5 C 16,1 km/h (3 Bft) 95,38 %
20.03.2017 14:34 13,7 C 74 % 1011,0 hPa 0,0 l/m 5,1 km/h (1 Bft) W 268 2 min 0,000 mm 1,5 UV-I 483 W/m 9,2 C 13,7 C 9,7 km/h (2 Bft) 92,11 %
20.03.2017 14:36 13,8 C 74 % 1011,0 hPa 0,0 l/m 10,7 km/h (2 Bft) W-SW 252 2 min 0,000 mm 1,5 UV-I 487 W/m 9,2 C 11,5 C 17,7 km/h (3 Bft) 90,00 %
20.03.2017 14:38 13,9 C 74 % 1010,9 hPa 0,0 l/m 6,7 km/h (2 Bft) W 270 2 min 0,000 mm 1,5 UV-I 503 W/m 9,3 C 13,7 C 12,9 km/h (3 Bft) 96,43 %
20.03.2017 14:40 13,9 C 74 % 1010,9 hPa 0,0 l/m 7,6 km/h (2 Bft) W-SW 242 2 min 0,000 mm 1,4 UV-I 453 W/m 9,3 C 13,2 C 12,9 km/h (3 Bft) 97,37 %
20.03.2017 14:42 13,9 C 73 % 1010,9 hPa 0,0 l/m 12,8 km/h (3 Bft) W 272 2 min 0,000 mm 1,4 UV-I 416 W/m 9,1 C 10,7 C 19,3 km/h (3 Bft) 90,57 %
20.03.2017 14:44 13,9 C 73 % 1010,9 hPa 0,0 l/m 8,9 km/h (2 Bft) SW 229 2 min 0,000 mm 1,4 UV-I 410 W/m 9,1 C 12,5 C 14,5 km/h (3 Bft) 92,68 %
20.03.2017 14:46 14,0 C 75 % 1010,9 hPa 0,0 l/m 8,7 km/h (2 Bft) W 281 2 min 0,000 mm 1,5 UV-I 435 W/m 9,6 C 12,7 C 14,5 km/h (3 Bft) 94,00 %
20.03.2017 14:48 14,2 C 73 % 1010,9 hPa 0,0 l/m 5,8 km/h (2 Bft) SW 236 2 min 0,000 mm 1,5 UV-I 468 W/m 9,4 C 14,2 C 9,7 km/h (2 Bft) 96,00 %
20.03.2017 14:50 14,2 C 73 % 1010,9 hPa 0,0 l/m 4,1 km/h (1 Bft) W 278 2 min 0,000 mm 1,5 UV-I 493 W/m 9,4 C 14,2 C 12,9 km/h (3 Bft) 91,67 %
20.03.2017 14:52 14,3 C 73 % 1010,8 hPa 0,0 l/m 7,2 km/h (2 Bft) W-SW 248 2 min 0,000 mm 1,5 UV-I 520 W/m 9,5 C 13,8 C 11,3 km/h (2 Bft) 94,55 %
20.03.2017 14:54 14,4 C 73 % 1010,8 hPa 0,0 l/m 6,0 km/h (2 Bft) W 262 2 min 0,000 mm 1,6 UV-I 583 W/m 9,6 C 14,4 C 12,9 km/h (3 Bft) 92,86 %
20.03.2017 14:56 14,4 C 72 % 1010,7 hPa 0,0 l/m 4,0 km/h (1 Bft) W-NW 286 2 min 0,000 mm 1,5 UV-I 534 W/m 9,4 C 14,4 C 9,7 km/h (2 Bft) 92,73 %
20.03.2017 14:58 14,4 C 73 % 1010,7 hPa 0,0 l/m 4,8 km/h (1 Bft) W 270 2 min 0,000 mm 1,5 UV-I 500 W/m 9,6 C 14,4 C 11,3 km/h (2 Bft) 93,33 %
20.03.2017 15:00 14,6 C 73 % 1010,6 hPa 0,0 l/m 7,4 km/h (2 Bft) W 263 2 min 0,254 mm 1,5 UV-I 490 W/m 9,8 C 14,0 C 14,5 km/h (3 Bft) 95,74 %
20.03.2017 15:02 14,4 C 71 % 1010,6 hPa 0,0 l/m 10,0 km/h (2 Bft) W 261 2 min 0,000 mm 1,4 UV-I 474 W/m 9,2 C 12,5 C 16,1 km/h (3 Bft) 95,12 %
20.03.2017 15:04 14,3 C 71 % 1010,6 hPa 0,0 l/m 10,9 km/h (2 Bft) W-SW 258 2 min 0,000 mm 1,3 UV-I 433 W/m 9,1 C 11,9 C 16,1 km/h (3 Bft) 100,00 %
20.03.2017 15:06 14,2 C 73 % 1010,6 hPa 0,0 l/m 9,9 km/h (2 Bft) W-SW 248 2 min 0,000 mm 1,1 UV-I 431 W/m 9,4 C 12,3 C 17,7 km/h (3 Bft) 90,14 %
20.03.2017 15:08 14,3 C 73 % 1010,6 hPa 0,0 l/m 7,4 km/h (2 Bft) W-SW 257 2 min 0,000 mm 1,2 UV-I 367 W/m 9,5 C 13,7 C 12,9 km/h (3 Bft) 95,12 %
20.03.2017 15:10 14,3 C 73 % 1010,6 hPa 0,0 l/m 6,1 km/h (2 Bft) W-SW 238 2 min 0,000 mm 1,2 UV-I 364 W/m 9,5 C 14,3 C 12,9 km/h (3 Bft) 96,43 %
20.03.2017 15:12 14,3 C 71 % 1010,5 hPa 0,0 l/m 5,2 km/h (1 Bft) W 272 2 min 0,000 mm 1,1 UV-I 324 W/m 9,1 C 14,3 C 12,9 km/h (3 Bft) 94,74 %
20.03.2017 15:14 14,2 C 70 % 1010,5 hPa 0,0 l/m 9,3 km/h (2 Bft) W-SW 242 2 min 0,000 mm 1,1 UV-I 345 W/m 8,8 C 12,6 C 17,7 km/h (3 Bft) 94,34 %
20.03.2017 15:16 14,1 C 72 % 1010,5 hPa 0,0 l/m 4,9 km/h (1 Bft) W 267 2 min 0,000 mm 1,1 UV-I 361 W/m 9,1 C 14,1 C 9,7 km/h (2 Bft) 94,00 %
20.03.2017 15:18 14,2 C 73 % 1010,5 hPa 0,0 l/m 3,9 km/h (1 Bft) NW 311 2 min 0,000 mm 1,0 UV-I 312 W/m 9,4 C 14,2 C 9,7 km/h (2 Bft) 95,12 %
20.03.2017 15:20 14,2 C 74 % 1010,5 hPa 0,0 l/m 7,7 km/h (2 Bft) W-SW 249 2 min 0,000 mm 0,9 UV-I 264 W/m 9,6 C 13,4 C 11,3 km/h (2 Bft) 94,00 %
20.03.2017 15:22 14,2 C 73 % 1010,6 hPa 0,0 l/m 10,1 km/h (2 Bft) W 269 2 min 0,000 mm 0,9 UV-I 254 W/m 9,4 C 12,2 C 19,3 km/h (3 Bft) 94,74 %
20.03.2017 15:24 13,9 C 72 % 1010,5 hPa 0,0 l/m 7,7 km/h (2 Bft) SW 221 0 min 0,000 mm 0,9 UV-I 239 W/m 8,9 C 13,1 C 12,9 km/h (3 Bft) 93,18 %
20.03.2017 15:26 13,9 C 73 % 1010,5 hPa 0,0 l/m 5,8 km/h (2 Bft) NW 316 0 min 0,000 mm 0,8 UV-I 230 W/m 9,1 C 13,9 C 9,7 km/h (2 Bft) 98,11 %
20.03.2017 15:28 13,8 C 73 % 1010,5 hPa 0,0 l/m 4,3 km/h (1 Bft) W-NW 289 0 min 0,000 mm 0,7 UV-I 197 W/m 9,0 C 13,8 C 11,3 km/h (2 Bft) 97,62 %
20.03.2017 15:30 13,8 C 74 % 1010,5 hPa 0,0 l/m 4,4 km/h (1 Bft) W-SW 248 0 min 0,000 mm 0,7 UV-I 191 W/m 9,2 C 13,8 C 9,7 km/h (2 Bft) 96,15 %
20.03.2017 15:32 13,7 C 74 % 1010,4 hPa 0,0 l/m 2,5 km/h (1 Bft) NW 305 0 min 0,000 mm 0,7 UV-I 196 W/m 9,2 C 13,7 C 4,8 km/h (1 Bft) 94,00 %
20.03.2017 15:34 13,6 C 74 % 1010,4 hPa 0,0 l/m 4,1 km/h (1 Bft) W 265 0 min 0,000 mm 0,7 UV-I 194 W/m 9,1 C 13,6 C 9,7 km/h (2 Bft) 97,44 %
20.03.2017 15:36 13,6 C 74 % 1010,4 hPa 0,0 l/m 5,3 km/h (1 Bft) W 267 0 min 0,000 mm 0,6 UV-I 188 W/m 9,1 C 13,6 C 9,7 km/h (2 Bft) 96,00 %
20.03.2017 15:38 13,5 C 74 % 1010,4 hPa 0,0 l/m 6,3 km/h (2 Bft) W-NW 286 0 min 0,000 mm 0,6 UV-I 181 W/m 9,0 C 13,5 C 11,3 km/h (2 Bft) 92,31 %
20.03.2017 15:40 13,4 C 75 % 1010,3 hPa 0,0 l/m 2,1 km/h (1 Bft) SW 234 0 min 0,000 mm 0,6 UV-I 175 W/m 9,1 C 13,4 C 4,8 km/h (1 Bft) 95,95 %
20.03.2017 15:42 13,4 C 74 % 1010,3 hPa 0,0 l/m 4,4 km/h (1 Bft) W-NW 298 0 min 0,000 mm 0,6 UV-I 171 W/m 8,9 C 13,4 C 9,7 km/h (2 Bft) 97,56 %
20.03.2017 15:44 13,4 C 75 % 1010,3 hPa 0,0 l/m 5,8 km/h (2 Bft) W-NW 284 0 min 0,000 mm 0,5 UV-I 171 W/m 9,1 C 13,4 C 12,9 km/h (3 Bft) 94,34 %
20.03.2017 15:46 13,4 C 75 % 1010,3 hPa 0,0 l/m 4,0 km/h (1 Bft) W-SW 257 0 min 0,000 mm 0,5 UV-I 172 W/m 9,1 C 13,4 C 11,3 km/h (2 Bft) 97,37 %
20.03.2017 15:48 13,4 C 76 % 1010,3 hPa 0,0 l/m 6,4 km/h (2 Bft) W-SW 245 0 min 0,000 mm 0,5 UV-I 172 W/m 9,3 C 13,4 C 12,9 km/h (3 Bft) 98,00 %
20.03.2017 15:50 13,4 C 74 % 1010,2 hPa 0,0 l/m 4,8 km/h (1 Bft) W-NW 283 0 min 0,000 mm 0,5 UV-I 175 W/m 8,9 C 13,4 C 8,0 km/h (2 Bft) 98,00 %
20.03.2017 15:52 13,4 C 75 % 1010,2 hPa 0,0 l/m 1,1 km/h (1 Bft) W-NW 289 0 min 0,000 mm 0,5 UV-I 186 W/m 9,1 C 13,4 C 3,2 km/h (1 Bft) 97,37 %
20.03.2017 15:54 13,4 C 74 % 1010,1 hPa 0,0 l/m 4,9 km/h (1 Bft) W-SW 250 0 min 0,000 mm 0,5 UV-I 195 W/m 8,9 C 13,4 C 9,7 km/h (2 Bft) 98,00 %
20.03.2017 15:56 13,4 C 74 % 1010,1 hPa 0,0 l/m 2,8 km/h (1 Bft) W 261 0 min 0,000 mm 0,5 UV-I 204 W/m 8,9 C 13,4 C 4,8 km/h (1 Bft) 98,00 %
20.03.2017 15:58 13,4 C 74 % 1010,1 hPa 0,0 l/m 3,5 km/h (1 Bft) W-NW 284 0 min 0,000 mm 0,5 UV-I 201 W/m 8,9 C 13,4 C 4,8 km/h (1 Bft) 100,00 %
20.03.2017 16:00 13,4 C 74 % 1010,1 hPa 0,0 l/m 3,3 km/h (1 Bft) W-NW 284 0 min 0,152 mm 0,5 UV-I 191 W/m 8,9 C 13,4 C 4,8 km/h (1 Bft) 94,74 %
20.03.2017 16:02 13,4 C 75 % 1010,0 hPa 0,0 l/m 2,7 km/h (1 Bft) W-SW 257 0 min 0,000 mm 0,5 UV-I 179 W/m 9,1 C 13,4 C 4,8 km/h (1 Bft) 98,00 %
20.03.2017 16:04 13,4 C 74 % 1010,0 hPa 0,0 l/m 1,8 km/h (1 Bft) W 259 0 min 0,000 mm 0,5 UV-I 166 W/m 8,9 C 13,4 C 4,8 km/h (1 Bft) 100,00 %
20.03.2017 16:06 13,4 C 74 % 1010,0 hPa 0,0 l/m 1,8 km/h (1 Bft) W 272 0 min 0,000 mm 0,4 UV-I 164 W/m 8,9 C 13,4 C 4,8 km/h (1 Bft) 96,00 %
20.03.2017 16:08 13,4 C 74 % 1010,0 hPa 0,0 l/m 0,7 km/h (0 Bft) W 273 0 min 0,000 mm 0,0 UV-I 171 W/m 8,9 C 13,4 C 3,2 km/h (1 Bft) 100,00 %
20.03.2017 16:10 13,4 C 75 % 1010,0 hPa 0,0 l/m 0,0 km/h (0 Bft) W 272 0 min 0,000 mm 0,0 UV-I 159 W/m 9,1 C 13,4 C 0,0 km/h (0 Bft) 97,62 %
20.03.2017 16:12 13,4 C 74 % 1010,0 hPa 0,0 l/m 1,2 km/h (1 Bft) W 272 0 min 0,000 mm 0,0 UV-I 165 W/m 8,9 C 13,4 C 4,8 km/h (1 Bft) 100,00 %
20.03.2017 16:14 13,4 C 74 % 1010,0 hPa 0,0 l/m 0,0 km/h (0 Bft) W 272 0 min 0,000 mm 0,0 UV-I 159 W/m 8,9 C 13,4 C 1,6 km/h (1 Bft) 98,11 %
20.03.2017 16:16 13,4 C 74 % 1010,0 hPa 0,0 l/m 1,1 km/h (1 Bft) W 272 0 min 0,000 mm 0,0 UV-I 158 W/m 8,9 C 13,4 C 3,2 km/h (1 Bft) 100,00 %
20.03.2017 16:18 13,4 C 74 % 1010,0 hPa 0,0 l/m 4,3 km/h (1 Bft) W-NW 283 0 min 0,000 mm 0,0 UV-I 166 W/m 8,9 C 13,4 C 9,7 km/h (2 Bft) 98,00 %
20.03.2017 16:20 13,4 C 74 % 1009,9 hPa 0,0 l/m 4,2 km/h (1 Bft) W-NW 282 0 min 0,000 mm 0,0 UV-I 168 W/m 8,9 C 13,4 C 9,7 km/h (2 Bft) 96,00 %
20.03.2017 16:22 13,4 C 73 % 1009,9 hPa 0,0 l/m 2,7 km/h (1 Bft) W-NW 300 0 min 0,000 mm 0,0 UV-I 168 W/m 8,7 C 13,4 C 6,4 km/h (2 Bft) 100,00 %
20.03.2017 16:24 13,4 C 74 % 1009,9 hPa 0,0 l/m 2,7 km/h (1 Bft) W-NW 284 2 min 0,000 mm 0,0 UV-I 170 W/m 8,9 C 13,4 C 4,8 km/h (1 Bft) 100,00 %
20.03.2017 16:26 13,4 C 74 % 1009,9 hPa 0,0 l/m 3,9 km/h (1 Bft) W-NW 284 2 min 0,000 mm 0,0 UV-I 183 W/m 8,9 C 13,4 C 4,8 km/h (1 Bft) 98,11 %
20.03.2017 16:28 13,4 C 74 % 1009,9 hPa 0,0 l/m 4,0 km/h (1 Bft) W-NW 286 2 min 0,000 mm 0,0 UV-I 193 W/m 8,9 C 13,4 C 6,4 km/h (2 Bft) 100,00 %
20.03.2017 16:30 13,4 C 75 % 1009,8 hPa 0,0 l/m 2,4 km/h (1 Bft) W-NW 286 2 min 0,000 mm 0,0 UV-I 221 W/m 9,1 C 13,4 C 4,8 km/h (1 Bft) 100,00 %
20.03.2017 16:32 13,5 C 74 % 1009,8 hPa 0,0 l/m 1,8 km/h (1 Bft) W-NW 286 2 min 0,000 mm 0,0 UV-I 276 W/m 9,0 C 13,5 C 3,2 km/h (1 Bft) 97,56 %
20.03.2017 16:34 13,6 C 75 % 1009,8 hPa 0,0 l/m 1,0 km/h (0 Bft) W-NW 290 2 min 0,000 mm 0,0 UV-I 304 W/m 9,3 C 13,6 C 4,8 km/h (1 Bft) 97,87 %
20.03.2017 16:36 13,7 C 73 % 1009,7 hPa 0,0 l/m 2,7 km/h (1 Bft) W-NW 290 2 min 0,000 mm 0,0 UV-I 295 W/m 8,9 C 13,7 C 4,8 km/h (1 Bft) 93,62 %
20.03.2017 16:38 13,7 C 74 % 1009,7 hPa 0,0 l/m 1,6 km/h (1 Bft) W-NW 290 2 min 0,000 mm 0,0 UV-I 271 W/m 9,2 C 13,7 C 4,8 km/h (1 Bft) 92,00 %
20.03.2017 16:40 13,7 C 74 % 1009,7 hPa 0,0 l/m 0,1 km/h (0 Bft) W-NW 290 2 min 0,000 mm 0,0 UV-I 249 W/m 9,2 C 13,7 C 1,6 km/h (1 Bft) 97,87 %
20.03.2017 16:42 13,7 C 75 % 1009,8 hPa 0,0 l/m 0,9 km/h (0 Bft) W-NW 298 2 min 0,000 mm 0,0 UV-I 215 W/m 9,3 C 13,7 C 3,2 km/h (1 Bft) 100,00 %
20.03.2017 16:44 13,7 C 75 % 1009,7 hPa 0,0 l/m 1,1 km/h (1 Bft) W-NW 298 2 min 0,000 mm 0,0 UV-I 218 W/m 9,3 C 13,7 C 3,2 km/h (1 Bft) 97,37 %
20.03.2017 16:46 13,7 C 75 % 1009,7 hPa 0,0 l/m 1,6 km/h (1 Bft) NW 323 2 min 0,000 mm 0,0 UV-I 210 W/m 9,3 C 13,7 C 6,4 km/h (2 Bft) 100,00 %
20.03.2017 16:48 13,7 C 74 % 1009,7 hPa 0,0 l/m 3,9 km/h (1 Bft) NW 309 2 min 0,000 mm 0,0 UV-I 201 W/m 9,2 C 13,7 C 6,4 km/h (2 Bft) 97,87 %
20.03.2017 16:50 13,6 C 74 % 1009,7 hPa 0,0 l/m 2,9 km/h (1 Bft) NW 321 2 min 0,000 mm 0,0 UV-I 192 W/m 9,1 C 13,6 C 6,4 km/h (2 Bft) 98,00 %
20.03.2017 16:52 13,6 C 74 % 1009,7 hPa 0,0 l/m 1,6 km/h (1 Bft) NW 304 2 min 0,000 mm 0,0 UV-I 177 W/m 9,1 C 13,6 C 4,8 km/h (1 Bft) 91,67 %
20.03.2017 16:54 13,6 C 74 % 1009,7 hPa 0,0 l/m 3,6 km/h (1 Bft) NW 311 2 min 0,000 mm 0,0 UV-I 165 W/m 9,1 C 13,6 C 8,0 km/h (2 Bft) 97,56 %
20.03.2017 16:56 13,5 C 75 % 1009,8 hPa 0,0 l/m 2,2 km/h (1 Bft) NW 306 2 min 0,000 mm 0,0 UV-I 149 W/m 9,2 C 13,5 C 4,8 km/h (1 Bft) 92,00 %
20.03.2017 16:58 13,3 C 74 % 1009,7 hPa 0,0 l/m 1,2 km/h (1 Bft) NW 312 2 min 0,000 mm 0,0 UV-I 134 W/m 8,8 C 13,3 C 3,2 km/h (1 Bft) 97,73 %
20.03.2017 17:00 13,3 C 74 % 1009,7 hPa 0,0 l/m 0,5 km/h (0 Bft) NW 312 2 min 0,000 mm 0,0 UV-I 126 W/m 8,8 C 13,3 C 1,6 km/h (1 Bft) 97,87 %
20.03.2017 17:02 13,3 C 75 % 1009,7 hPa 0,0 l/m 0,0 km/h (0 Bft) NW 312 2 min 0,102 mm 0,0 UV-I 123 W/m 9,0 C 13,3 C 0,0 km/h (0 Bft) 95,45 %
20.03.2017 17:04 13,3 C 75 % 1009,7 hPa 0,0 l/m 0,2 km/h (0 Bft) NW 312 2 min 0,000 mm 0,0 UV-I 120 W/m 9,0 C 13,3 C 1,6 km/h (1 Bft) 96,23 %
20.03.2017 17:06 13,2 C 75 % 1009,7 hPa 0,0 l/m 1,6 km/h (1 Bft) NW 313 2 min 0,000 mm 0,0 UV-I 120 W/m 8,9 C 13,2 C 3,2 km/h (1 Bft) 97,87 %
20.03.2017 17:08 13,2 C 75 % 1009,6 hPa 0,0 l/m 1,2 km/h (1 Bft) NW 313 2 min 0,000 mm 0,0 UV-I 109 W/m 8,9 C 13,2 C 3,2 km/h (1 Bft) 100,00 %
20.03.2017 17:10 13,1 C 75 % 1009,7 hPa 0,0 l/m 2,3 km/h (1 Bft) NW 315 2 min 0,000 mm 0,0 UV-I 111 W/m 8,8 C 13,1 C 4,8 km/h (1 Bft) 97,56 %
20.03.2017 17:12 13,1 C 75 % 1009,6 hPa 0,0 l/m 0,2 km/h (0 Bft) NW 315 2 min 0,000 mm 0,0 UV-I 123 W/m 8,8 C 13,1 C 3,2 km/h (1 Bft) 97,87 %
20.03.2017 17:14 13,1 C 74 % 1009,7 hPa 0,0 l/m 0,2 km/h (0 Bft) NW 315 2 min 0,000 mm 0,0 UV-I 119 W/m 8,6 C 13,1 C 1,6 km/h (1 Bft) 96,00 %
20.03.2017 17:16 13,1 C 75 % 1009,6 hPa 0,0 l/m 1,1 km/h (1 Bft) NW 315 2 min 0,000 mm 0,0 UV-I 118 W/m 8,8 C 13,1 C 4,8 km/h (1 Bft) 97,87 %
20.03.2017 17:18 13,1 C 75 % 1009,7 hPa 0,0 l/m 0,8 km/h (0 Bft) NW 315 2 min 0,000 mm 0,0 UV-I 112 W/m 8,8 C 13,1 C 3,2 km/h (1 Bft) 100,00 %
20.03.2017 17:20 13,1 C 75 % 1009,6 hPa 0,0 l/m 0,6 km/h (0 Bft) NW 315 2 min 0,000 mm 0,0 UV-I 101 W/m 8,8 C 13,1 C 3,2 km/h (1 Bft) 92,45 %
20.03.2017 17:22 13,1 C 76 % 1009,6 hPa 0,0 l/m 0,0 km/h (0 Bft) NW 315 2 min 0,000 mm 0,0 UV-I 84 W/m 9,0 C 13,1 C 1,6 km/h (1 Bft) 96,00 %
20.03.2017 17:24 13,1 C 76 % 1009,6 hPa 0,0 l/m 0,7 km/h (0 Bft) NW 315 0 min 0,000 mm 0,0 UV-I 74 W/m 9,0 C 13,1 C 3,2 km/h (1 Bft) 95,74 %
20.03.2017 17:26 13,0 C 75 % 1009,6 hPa 0,0 l/m 0,3 km/h (0 Bft) NW 315 2 min 0,000 mm 0,0 UV-I 88 W/m 8,7 C 13,0 C 1,6 km/h (1 Bft) 94,74 %
20.03.2017 17:28 13,0 C 75 % 1009,6 hPa 0,0 l/m 0,0 km/h (0 Bft) NW 315 2 min 0,000 mm 0,0 UV-I 90 W/m 8,7 C 13,0 C 0,0 km/h (0 Bft) 96,00 %
20.03.2017 17:30 13,0 C 76 % 1009,5 hPa 0,0 l/m 0,0 km/h (0 Bft) NW 315 2 min 0,000 mm 0,0 UV-I 82 W/m 8,9 C 13,0 C 1,6 km/h (1 Bft) 93,75 %
20.03.2017 17:32 12,9 C 77 % 1009,5 hPa 0,0 l/m 0,0 km/h (0 Bft) NW 315 2 min 0,000 mm 0,0 UV-I 70 W/m 9,0 C 12,9 C 1,6 km/h (1 Bft) 93,62 %
20.03.2017 17:34 12,8 C 78 % 1009,4 hPa 0,0 l/m 0,0 km/h (0 Bft) NW 315 0 min 0,000 mm 0,0 UV-I 58 W/m 9,1 C 12,8 C 1,6 km/h (1 Bft) 94,00 %
20.03.2017 17:36 12,8 C 78 % 1009,4 hPa 0,0 l/m 0,0 km/h (0 Bft) NW 315 0 min 0,000 mm 0,0 UV-I 49 W/m 9,1 C 12,8 C 0,0 km/h (0 Bft) 94,59 %
20.03.2017 17:38 12,7 C 78 % 1009,3 hPa 0,0 l/m 0,0 km/h (0 Bft) NW 315 0 min 0,000 mm 0,0 UV-I 47 W/m 9,0 C 12,7 C 0,0 km/h (0 Bft) 98,00 %
20.03.2017 17:40 12,6 C 79 % 1009,4 hPa 0,0 l/m 0,0 km/h (0 Bft) NW 315 2 min 0,000 mm 0,0 UV-I 53 W/m 9,1 C 12,6 C 0,0 km/h (0 Bft) 94,00 %
20.03.2017 17:42 12,5 C 79 % 1009,3 hPa 0,0 l/m 0,0 km/h (0 Bft) NW 315 2 min 0,000 mm 0,0 UV-I 50 W/m 9,0 C 12,5 C 0,0 km/h (0 Bft) 93,62 %
20.03.2017 17:44 12,4 C 79 % 1009,3 hPa 0,0 l/m 0,0 km/h (0 Bft) NW 315 0 min 0,000 mm 0,0 UV-I 44 W/m 8,9 C 12,4 C 0,0 km/h (0 Bft) 94,00 %
20.03.2017 17:46 12,4 C 79 % 1009,3 hPa 0,0 l/m 0,0 km/h (0 Bft) NW 315 0 min 0,000 mm 0,0 UV-I 39 W/m 8,9 C 12,4 C 0,0 km/h (0 Bft) 97,87 %
20.03.2017 17:48 12,4 C 80 % 1009,3 hPa 0,0 l/m 0,0 km/h (0 Bft) NW 315 0 min 0,000 mm 0,0 UV-I 36 W/m 9,0 C 12,4 C 0,0 km/h (0 Bft) 90,00 %
20.03.2017 17:50 12,4 C 79 % 1009,4 hPa 0,0 l/m 0,0 km/h (0 Bft) NW 315 0 min 0,000 mm 0,0 UV-I 31 W/m 8,9 C 12,4 C 0,0 km/h (0 Bft) 91,43 %
20.03.2017 17:52 12,3 C 79 % 1009,4 hPa 0,0 l/m 0,0 km/h (0 Bft) NW 315 0 min 0,000 mm 0,0 UV-I 27 W/m 8,8 C 12,3 C 0,0 km/h (0 Bft) 93,62 %
20.03.2017 17:54 12,3 C 80 % 1009,4 hPa 0,0 l/m 1,2 km/h (1 Bft) NW 315 0 min 0,000 mm 0,0 UV-I 25 W/m 8,9 C 12,3 C 3,2 km/h (1 Bft) 96,00 %
20.03.2017 17:56 12,2 C 80 % 1009,4 hPa 0,0 l/m 0,7 km/h (0 Bft) NW 315 0 min 0,000 mm 0,0 UV-I 23 W/m 8,9 C 12,2 C 3,2 km/h (1 Bft) 96,00 %
20.03.2017 17:58 12,2 C 80 % 1009,4 hPa 0,0 l/m 0,4 km/h (0 Bft) NW 315 0 min 0,000 mm 0,0 UV-I 19 W/m 8,9 C 12,2 C 3,2 km/h (1 Bft) 96,00 %
20.03.2017 18:00 12,2 C 80 % 1009,3 hPa 0,0 l/m 1,3 km/h (1 Bft) NW 318 0 min 0,000 mm 0,0 UV-I 17 W/m 8,9 C 12,2 C 4,8 km/h (1 Bft) 97,37 %
20.03.2017 18:02 12,2 C 80 % 1009,3 hPa 0,0 l/m 2,2 km/h (1 Bft) NW 325 0 min 0,051 mm 0,0 UV-I 15 W/m 8,9 C 12,2 C 3,2 km/h (1 Bft) 100,00 %
20.03.2017 18:04 12,2 C 80 % 1009,3 hPa 0,0 l/m 2,6 km/h (1 Bft) NW 325 2 min 0,000 mm 0,0 UV-I 12 W/m 8,9 C 12,2 C 3,2 km/h (1 Bft) 90,00 %
20.03.2017 18:06 12,2 C 80 % 1009,3 hPa 0,0 l/m 1,8 km/h (1 Bft) NW 325 2 min 0,000 mm 0,0 UV-I 12 W/m 8,9 C 12,2 C 3,2 km/h (1 Bft) 98,11 %
20.03.2017 18:08 12,1 C 81 % 1009,3 hPa 0,0 l/m 3,6 km/h (1 Bft) N-NO 17 0 min 0,000 mm 0,0 UV-I 10 W/m 8,9 C 12,1 C 4,8 km/h (1 Bft) 100,00 %
20.03.2017 18:10 12,1 C 81 % 1009,3 hPa 0,0 l/m 3,0 km/h (1 Bft) N-NO 17 0 min 0,000 mm 0,0 UV-I 9 W/m 8,9 C 12,1 C 4,8 km/h (1 Bft) 98,11 %
20.03.2017 18:12 12,1 C 81 % 1009,3 hPa 0,0 l/m 2,0 km/h (1 Bft) N-NO 17 0 min 0,000 mm 0,0 UV-I 8 W/m 8,9 C 12,1 C 3,2 km/h (1 Bft) 100,00 %
20.03.2017 18:14 12,0 C 81 % 1009,3 hPa 0,0 l/m 2,4 km/h (1 Bft) N-NO 17 0 min 0,000 mm 0,0 UV-I 7 W/m 8,8 C 12,0 C 3,2 km/h (1 Bft) 98,00 %
20.03.2017 18:16 11,9 C 82 % 1009,3 hPa 0,0 l/m 1,3 km/h (1 Bft) N-NO 17 0 min 0,000 mm 0,0 UV-I 5 W/m 8,9 C 11,9 C 3,2 km/h (1 Bft) 100,00 %
20.03.2017 18:18 11,8 C 83 % 1009,4 hPa 0,0 l/m 2,4 km/h (1 Bft) NO 36 0 min 0,000 mm 0,0 UV-I 5 W/m 9,0 C 11,8 C 4,8 km/h (1 Bft) 94,74 %
20.03.2017 18:20 11,6 C 84 % 1009,3 hPa 0,0 l/m 4,2 km/h (1 Bft) O-NO 76 0 min 0,000 mm 0,0 UV-I 5 W/m 9,0 C 11,6 C 6,4 km/h (2 Bft) 96,00 %
20.03.2017 18:22 11,4 C 84 % 1009,3 hPa 0,0 l/m 5,3 km/h (1 Bft) O 97 0 min 0,000 mm 0,0 UV-I 5 W/m 8,8 C 11,4 C 6,4 km/h (2 Bft) 96,23 %
20.03.2017 18:24 11,3 C 85 % 1009,3 hPa 0,0 l/m 5,2 km/h (1 Bft) O-SO 106 0 min 0,000 mm 0,0 UV-I 5 W/m 8,9 C 11,3 C 6,4 km/h (2 Bft) 100,00 %
20.03.2017 18:26 11,2 C 86 % 1009,3 hPa 0,0 l/m 4,9 km/h (1 Bft) O 89 0 min 0,000 mm 0,0 UV-I 0 W/m 8,9 C 11,2 C 6,4 km/h (2 Bft) 98,00 %
20.03.2017 18:28 11,1 C 86 % 1009,3 hPa 0,0 l/m 5,3 km/h (1 Bft) O 90 0 min 0,000 mm 0,0 UV-I 0 W/m 8,8 C 11,1 C 6,4 km/h (2 Bft) 98,00 %
20.03.2017 18:30 10,9 C 86 % 1009,3 hPa 0,0 l/m 4,6 km/h (1 Bft) O 91 0 min 0,000 mm 0,0 UV-I 0 W/m 8,7 C 10,9 C 6,4 km/h (2 Bft) 100,00 %
20.03.2017 18:32 10,9 C 86 % 1009,2 hPa 0,0 l/m 4,6 km/h (1 Bft) O 91 0 min 0,000 mm 0,0 UV-I 0 W/m 8,7 C 10,9 C 6,4 km/h (2 Bft) 96,23 %
20.03.2017 18:34 10,9 C 86 % 1009,2 hPa 0,0 l/m 5,0 km/h (1 Bft) O 91 0 min 0,000 mm 0,0 UV-I 0 W/m 8,7 C 10,9 C 6,4 km/h (2 Bft) 98,00 %
20.03.2017 18:36 10,9 C 86 % 1009,2 hPa 0,0 l/m 5,2 km/h (1 Bft) O 91 0 min 0,000 mm 0,0 UV-I 0 W/m 8,7 C 10,9 C 6,4 km/h (2 Bft) 100,00 %
20.03.2017 18:38 10,8 C 86 % 1009,2 hPa 0,0 l/m 5,1 km/h (1 Bft) O 92 0 min 0,000 mm 0,0 UV-I 0 W/m 8,6 C 10,8 C 6,4 km/h (2 Bft) 92,86 %
20.03.2017 18:40 10,8 C 86 % 1009,1 hPa 0,0 l/m 4,6 km/h (1 Bft) O 92 0 min 0,000 mm 0,0 UV-I 0 W/m 8,6 C 10,8 C 6,4 km/h (2 Bft) 97,56 %
20.03.2017 18:42 10,8 C 86 % 1009,1 hPa 0,0 l/m 4,2 km/h (1 Bft) O 92 0 min 0,000 mm 0,0 UV-I 0 W/m 8,6 C 10,8 C 6,4 km/h (2 Bft) 100,00 %
20.03.2017 18:44 10,7 C 86 % 1009,1 hPa 0,0 l/m 4,0 km/h (1 Bft) O 92 0 min 0,000 mm 0,0 UV-I 0 W/m 8,5 C 10,7 C 4,8 km/h (1 Bft) 97,37 %
20.03.2017 18:46 10,6 C 86 % 1009,1 hPa 0,0 l/m 3,6 km/h (1 Bft) O 92 0 min 0,000 mm 0,0 UV-I 0 W/m 8,4 C 10,6 C 4,8 km/h (1 Bft) 95,52 %
20.03.2017 18:48 10,6 C 86 % 1009,1 hPa 0,0 l/m 2,6 km/h (1 Bft) O 92 0 min 0,000 mm 0,0 UV-I 0 W/m 8,4 C 10,6 C 4,8 km/h (1 Bft) 100,00 %
20.03.2017 18:50 10,3 C 87 % 1009,1 hPa 0,0 l/m 3,1 km/h (1 Bft) O 92 0 min 0,000 mm 0,0 UV-I 0 W/m 8,2 C 10,3 C 4,8 km/h (1 Bft) 95,59 %
20.03.2017 18:52 10,2 C 87 % 1009,1 hPa 0,0 l/m 3,3 km/h (1 Bft) O 92 0 min 0,000 mm 0,0 UV-I 0 W/m 8,1 C 10,2 C 4,8 km/h (1 Bft) 97,87 %
20.03.2017 18:54 9,9 C 88 % 1009,1 hPa 0,0 l/m 3,7 km/h (1 Bft) O 92 0 min 0,000 mm 0,0 UV-I 0 W/m 8,0 C 9,9 C 4,8 km/h (1 Bft) 100,00 %
20.03.2017 18:56 9,8 C 88 % 1009,1 hPa 0,0 l/m 3,2 km/h (1 Bft) O 92 0 min 0,000 mm 0,0 UV-I 0 W/m 7,9 C 9,8 C 4,8 km/h (1 Bft) 100,00 %
20.03.2017 18:58 9,9 C 89 % 1009,1 hPa 0,0 l/m 3,3 km/h (1 Bft) O 92 0 min 0,000 mm 0,0 UV-I 0 W/m 8,2 C 9,9 C 4,8 km/h (1 Bft) 98,11 %
20.03.2017 19:00 9,9 C 89 % 1009,1 hPa 0,0 l/m 1,8 km/h (1 Bft) O 92 0 min 0,000 mm 0,0 UV-I 0 W/m 8,2 C 9,9 C 4,8 km/h (1 Bft) 95,74 %
20.03.2017 19:02 9,9 C 89 % 1009,1 hPa 0,0 l/m 1,6 km/h (1 Bft) O 92 0 min 0,000 mm 0,0 UV-I 0 W/m 8,2 C 9,9 C 3,2 km/h (1 Bft) 97,73 %
20.03.2017 19:04 9,9 C 88 % 1009,1 hPa 0,0 l/m 1,8 km/h (1 Bft) O 92 0 min 0,000 mm 0,0 UV-I 0 W/m 8,0 C 9,9 C 3,2 km/h (1 Bft) 97,56 %
20.03.2017 19:06 9,8 C 89 % 1009,1 hPa 0,0 l/m 1,3 km/h (1 Bft) O 92 0 min 0,000 mm 0,0 UV-I 0 W/m 8,1 C 9,8 C 3,2 km/h (1 Bft) 96,00 %
20.03.2017 19:08 9,8 C 89 % 1009,1 hPa 0,0 l/m 1,6 km/h (1 Bft) O 92 0 min 0,000 mm 0,0 UV-I 0 W/m 8,1 C 9,8 C 3,2 km/h (1 Bft) 94,00 %
20.03.2017 19:10 9,8 C 89 % 1009,1 hPa 0,0 l/m 1,4 km/h (1 Bft) O 92 0 min 0,000 mm 0,0 UV-I 0 W/m 8,1 C 9,8 C 3,2 km/h (1 Bft) 96,23 %
20.03.2017 19:12 9,8 C 89 % 1009,1 hPa 0,0 l/m 0,7 km/h (0 Bft) O 92 0 min 0,000 mm 0,0 UV-I 0 W/m 8,1 C 9,8 C 1,6 km/h (1 Bft) 97,37 %
20.03.2017 19:14 9,8 C 89 % 1009,1 hPa 0,0 l/m 0,0 km/h (0 Bft) O 92 0 min 0,000 mm 0,0 UV-I 0 W/m 8,1 C 9,8 C 0,0 km/h (0 Bft) 94,34 %
20.03.2017 19:16 9,8 C 89 % 1009,1 hPa 0,0 l/m 0,0 km/h (0 Bft) O 92 0 min 0,000 mm 0,0 UV-I 0 W/m 8,1 C 9,8 C 0,0 km/h (0 Bft) 97,14 %
20.03.2017 19:18 9,7 C 89 % 1009,1 hPa 0,0 l/m 0,0 km/h (0 Bft) O 92 0 min 0,000 mm 0,0 UV-I 0 W/m 8,0 C 9,7 C 1,6 km/h (1 Bft) 96,23 %
20.03.2017 19:20 9,7 C 89 % 1009,1 hPa 0,0 l/m 0,0 km/h (0 Bft) O 92 0 min 0,000 mm 0,0 UV-I 0 W/m 8,0 C 9,7 C 0,0 km/h (0 Bft) 96,00 %
20.03.2017 19:22 9,7 C 89 % 1009,1 hPa 0,0 l/m 0,0 km/h (0 Bft) O 92 0 min 0,000 mm 0,0 UV-I 0 W/m 8,0 C 9,7 C 0,0 km/h (0 Bft) 95,74 %
20.03.2017 19:24 9,7 C 89 % 1009,1 hPa 0,0 l/m 0,0 km/h (0 Bft) O 92 0 min 0,000 mm 0,0 UV-I 0 W/m 8,0 C 9,7 C 0,0 km/h (0 Bft) 95,45 %
20.03.2017 19:26 9,6 C 89 % 1009,1 hPa 0,0 l/m 0,0 km/h (0 Bft) O 92 0 min 0,000 mm 0,0 UV-I 0 W/m 7,9 C 9,6 C 0,0 km/h (0 Bft) 93,62 %
20.03.2017 19:28 9,6 C 89 % 1009,1 hPa 0,0 l/m 0,0 km/h (0 Bft) O 92 0 min 0,000 mm 0,0 UV-I 0 W/m 7,9 C 9,6 C 0,0 km/h (0 Bft) 97,92 %
20.03.2017 19:30 9,5 C 90 % 1009,2 hPa 0,0 l/m 0,0 km/h (0 Bft) O 92 0 min 0,000 mm 0,0 UV-I 0 W/m 7,9 C 9,5 C 0,0 km/h (0 Bft) 98,00 %
20.03.2017 19:32 9,4 C 90 % 1009,1 hPa 0,0 l/m 0,0 km/h (0 Bft) O 92 0 min 0,000 mm 0,0 UV-I 0 W/m 7,8 C 9,4 C 0,0 km/h (0 Bft) 94,74 %
20.03.2017 19:34 9,3 C 90 % 1009,2 hPa 0,0 l/m 0,0 km/h (0 Bft) O 92 0 min 0,000 mm 0,0 UV-I 0 W/m 7,7 C 9,3 C 0,0 km/h (0 Bft) 94,00 %
20.03.2017 19:36 9,2 C 91 % 1009,1 hPa 0,0 l/m 0,0 km/h (0 Bft) O 92 0 min 0,000 mm 0,0 UV-I 0 W/m 7,8 C 9,2 C 0,0 km/h (0 Bft) 97,87 %
20.03.2017 19:38 9,1 C 91 % 1009,2 hPa 0,0 l/m 0,0 km/h (0 Bft) O 92 0 min 0,000 mm 0,0 UV-I 0 W/m 7,7 C 9,1 C 0,0 km/h (0 Bft) 89,29 %
20.03.2017 19:40 9,1 C 92 % 1009,2 hPa 0,0 l/m 0,0 km/h (0 Bft) O 92 0 min 0,000 mm 0,0 UV-I 0 W/m 7,9 C 9,1 C 0,0 km/h (0 Bft) 97,14 %
20.03.2017 19:42 9,0 C 91 % 1009,2 hPa 0,0 l/m 0,0 km/h (0 Bft) O 92 0 min 0,000 mm 0,0 UV-I 0 W/m 7,6 C 9,0 C 0,0 km/h (0 Bft) 94,34 %
20.03.2017 19:44 8,9 C 92 % 1009,2 hPa 0,0 l/m 0,0 km/h (0 Bft) O 92 0 min 0,000 mm 0,0 UV-I 0 W/m 7,7 C 8,9 C 0,0 km/h (0 Bft) 92,68 %
20.03.2017 19:46 8,8 C 92 % 1009,2 hPa 0,0 l/m 0,1 km/h (0 Bft) O 92 0 min 0,000 mm 0,0 UV-I 0 W/m 7,6 C 8,8 C 1,6 km/h (1 Bft) 91,49 %
20.03.2017 19:48 8,6 C 92 % 1009,3 hPa 0,0 l/m 2,0 km/h (1 Bft) O 92 0 min 0,000 mm 0,0 UV-I 0 W/m 7,4 C 8,6 C 3,2 km/h (1 Bft) 94,34 %
20.03.2017 19:50 8,5 C 93 % 1009,2 hPa 0,0 l/m 3,4 km/h (1 Bft) O 92 0 min 0,000 mm 0,0 UV-I 0 W/m 7,4 C 8,5 C 4,8 km/h (1 Bft) 92,00 %
20.03.2017 19:52 8,4 C 93 % 1009,2 hPa 0,0 l/m 4,1 km/h (1 Bft) O 92 0 min 0,000 mm 0,0 UV-I 0 W/m 7,3 C 8,4 C 4,8 km/h (1 Bft) 89,47 %
20.03.2017 19:54 8,5 C 93 % 1009,2 hPa 0,0 l/m 3,4 km/h (1 Bft) O 92 0 min 0,000 mm 0,0 UV-I 0 W/m 7,4 C 8,5 C 4,8 km/h (1 Bft) 89,36 %
20.03.2017 19:56 8,5 C 93 % 1009,1 hPa 0,0 l/m 3,1 km/h (1 Bft) O 92 0 min 0,000 mm 0,0 UV-I 0 W/m 7,4 C 8,5 C 3,2 km/h (1 Bft) 93,62 %
20.03.2017 19:58 8,5 C 93 % 1009,1 hPa 0,0 l/m 2,0 km/h (1 Bft) O 92 0 min 0,000 mm 0,0 UV-I 0 W/m 7,4 C 8,5 C 3,2 km/h (1 Bft) 94,00 %
20.03.2017 20:00 8,5 C 93 % 1009,1 hPa 0,0 l/m 1,0 km/h (0 Bft) O 92 0 min 0,000 mm 0,0 UV-I 0 W/m 7,4 C 8,5 C 3,2 km/h (1 Bft) 93,62 %
20.03.2017 20:02 8,6 C 93 % 1009,1 hPa 0,0 l/m 0,0 km/h (0 Bft) O 92 0 min 0,000 mm 0,0 UV-I 0 W/m 7,5 C 8,6 C 0,0 km/h (0 Bft) 94,87 %
20.03.2017 20:04 8,6 C 93 % 1009,1 hPa 0,0 l/m 0,0 km/h (0 Bft) O 92 0 min 0,000 mm 0,0 UV-I 0 W/m 7,5 C 8,6 C 0,0 km/h (0 Bft) 94,23 %
20.03.2017 20:06 8,6 C 93 % 1009,1 hPa 0,0 l/m 0,0 km/h (0 Bft) O 92 0 min 0,000 mm 0,0 UV-I 0 W/m 7,5 C 8,6 C 0,0 km/h (0 Bft) 91,67 %
20.03.2017 20:08 8,7 C 93 % 1009,1 hPa 0,0 l/m 0,0 km/h (0 Bft) O 92 0 min 0,000 mm 0,0 UV-I 0 W/m 7,6 C 8,7 C 0,0 km/h (0 Bft) 95,74 %
20.03.2017 20:10 8,7 C 93 % 1009,1 hPa 0,0 l/m 0,0 km/h (0 Bft) O 92 0 min 0,000 mm 0,0 UV-I 0 W/m 7,6 C 8,7 C 0,0 km/h (0 Bft) 94,23 %
20.03.2017 20:12 8,7 C 92 % 1009,1 hPa 0,0 l/m 0,0 km/h (0 Bft) O 92 0 min 0,000 mm 0,0 UV-I 0 W/m 7,5 C 8,7 C 0,0 km/h (0 Bft) 87,18 %
20.03.2017 20:14 8,5 C 92 % 1009,1 hPa 0,0 l/m 0,0 km/h (0 Bft) O 92 0 min 0,000 mm 0,0 UV-I 0 W/m 7,3 C 8,5 C 0,0 km/h (0 Bft) 97,87 %
20.03.2017 20:16 8,3 C 92 % 1009,2 hPa 0,0 l/m 0,1 km/h (0 Bft) O 92 0 min 0,000 mm 0,0 UV-I 0 W/m 7,1 C 8,3 C 1,6 km/h (1 Bft) 96,43 %
20.03.2017 20:18 8,2 C 92 % 1009,1 hPa 0,0 l/m 2,5 km/h (1 Bft) O 92 0 min 0,000 mm 0,0 UV-I 0 W/m 7,0 C 8,2 C 3,2 km/h (1 Bft) 95,45 %
20.03.2017 20:20 8,2 C 93 % 1009,2 hPa 0,0 l/m 2,6 km/h (1 Bft) O 92 0 min 0,000 mm 0,0 UV-I 0 W/m 7,1 C 8,2 C 3,2 km/h (1 Bft) 92,68 %
20.03.2017 20:22 8,2 C 93 % 1009,1 hPa 0,0 l/m 1,8 km/h (1 Bft) O 92 0 min 0,000 mm 0,0 UV-I 0 W/m 7,1 C 8,2 C 3,2 km/h (1 Bft) 98,00 %
20.03.2017 20:24 8,1 C 93 % 1009,1 hPa 0,0 l/m 3,7 km/h (1 Bft) O 92 0 min 0,000 mm 0,0 UV-I 0 W/m 7,0 C 8,1 C 4,8 km/h (1 Bft) 100,00 %
20.03.2017 20:26 8,1 C 93 % 1009,1 hPa 0,0 l/m 3,3 km/h (1 Bft) O 92 0 min 0,000 mm 0,0 UV-I 0 W/m 7,0 C 8,1 C 4,8 km/h (1 Bft) 96,00 %
20.03.2017 20:29 8,0 C 93 % 1009,1 hPa 0,0 l/m 3,0 km/h (1 Bft) O 92 0 min 0,000 mm 0,0 UV-I 0 W/m 6,9 C 8,0 C 4,8 km/h (1 Bft) 94,94 %
20.03.2017 20:30 8,1 C 94 % 1009,1 hPa 0,0 l/m 1,4 km/h (1 Bft) O 92 0 min 0,000 mm 0,0 UV-I 0 W/m 7,2 C 8,1 C 3,2 km/h (1 Bft) 100,00 %
20.03.2017 20:32 8,1 C 94 % 1009,2 hPa 0,0 l/m 2,1 km/h (1 Bft) O 92 0 min 0,000 mm 0,0 UV-I 0 W/m 7,2 C 8,1 C 4,8 km/h (1 Bft) 94,74 %
20.03.2017 20:34 8,1 C 93 % 1009,1 hPa 0,0 l/m 1,4 km/h (1 Bft) O 92 0 min 0,000 mm 0,0 UV-I 0 W/m 7,0 C 8,1 C 3,2 km/h (1 Bft) 100,00 %
20.03.2017 20:36 8,1 C 94 % 1009,2 hPa 0,0 l/m 0,0 km/h (0 Bft) O 92 0 min 0,000 mm 0,0 UV-I 0 W/m 7,2 C 8,1 C 0,0 km/h (0 Bft) 100,00 %
20.03.2017 20:38 8,1 C 94 % 1009,2 hPa 0,0 l/m 0,0 km/h (0 Bft) O 92 0 min 0,000 mm 0,0 UV-I 0 W/m 7,2 C 8,1 C 0,0 km/h (0 Bft) 97,87 %
20.03.2017 20:40 8,1 C 93 % 1009,1 hPa 0,0 l/m 0,0 km/h (0 Bft) O 92 0 min 0,000 mm 0,0 UV-I 0 W/m 7,0 C 8,1 C 0,0 km/h (0 Bft) 95,74 %
20.03.2017 20:42 8,1 C 93 % 1009,2 hPa 0,0 l/m 0,2 km/h (0 Bft) O 92 0 min 0,000 mm 0,0 UV-I 0 W/m 7,0 C 8,1 C 1,6 km/h (1 Bft) 94,44 %
20.03.2017 20:44 8,0 C 93 % 1009,2 hPa 0,0 l/m 0,0 km/h (0 Bft) O 92 0 min 0,000 mm 0,0 UV-I 0 W/m 6,9 C 8,0 C 1,6 km/h (1 Bft) 94,00 %
20.03.2017 20:46 7,9 C 93 % 1009,1 hPa 0,0 l/m 0,2 km/h (0 Bft) O 92 0 min 0,000 mm 0,0 UV-I 0 W/m 6,8 C 7,9 C 1,6 km/h (1 Bft) 97,87 %
20.03.2017 20:48 7,8 C 93 % 1009,2 hPa 0,0 l/m 0,6 km/h (0 Bft) O 92 0 min 0,000 mm 0,0 UV-I 0 W/m 6,7 C 7,8 C 1,6 km/h (1 Bft) 98,08 %
20.03.2017 20:50 7,8 C 93 % 1009,2 hPa 0,0 l/m 2,8 km/h (1 Bft) O 92 0 min 0,000 mm 0,0 UV-I 0 W/m 6,7 C 7,8 C 4,8 km/h (1 Bft) 100,00 %
20.03.2017 20:52 7,8 C 93 % 1009,2 hPa 0,0 l/m 2,6 km/h (1 Bft) O 92 0 min 0,000 mm 0,0 UV-I 0 W/m 6,7 C 7,8 C 3,2 km/h (1 Bft) 97,62 %
20.03.2017 20:54 7,8 C 94 % 1009,2 hPa 0,0 l/m 2,4 km/h (1 Bft) O 92 0 min 0,000 mm 0,0 UV-I 0 W/m 6,9 C 7,8 C 3,2 km/h (1 Bft) 100,00 %
20.03.2017 20:56 7,8 C 94 % 1009,2 hPa 0,0 l/m 1,8 km/h (1 Bft) O 92 0 min 0,000 mm 0,0 UV-I 0 W/m 6,9 C 7,8 C 3,2 km/h (1 Bft) 97,56 %
20.03.2017 20:58 7,7 C 93 % 1009,2 hPa 0,0 l/m 1,3 km/h (1 Bft) O 92 0 min 0,000 mm 0,0 UV-I 0 W/m 6,6 C 7,7 C 3,2 km/h (1 Bft) 96,00 %
20.03.2017 21:00 7,6 C 93 % 1009,2 hPa 0,0 l/m 2,4 km/h (1 Bft) O 92 0 min 0,000 mm 0,0 UV-I 0 W/m 6,5 C 7,6 C 4,8 km/h (1 Bft) 97,73 %
20.03.2017 21:02 7,7 C 94 % 1009,2 hPa 0,0 l/m 2,0 km/h (1 Bft) O 92 0 min 0,000 mm 0,0 UV-I 0 W/m 6,8 C 7,7 C 3,2 km/h (1 Bft) 97,73 %
20.03.2017 21:04 7,7 C 94 % 1009,1 hPa 0,0 l/m 1,8 km/h (1 Bft) O 92 0 min 0,000 mm 0,0 UV-I 0 W/m 6,8 C 7,7 C 3,2 km/h (1 Bft) 95,45 %
20.03.2017 21:06 7,8 C 94 % 1009,1 hPa 0,0 l/m 0,5 km/h (0 Bft) O 92 0 min 0,000 mm 0,0 UV-I 0 W/m 6,9 C 7,8 C 3,2 km/h (1 Bft) 98,31 %
20.03.2017 21:08 7,7 C 94 % 1009,0 hPa 0,0 l/m 0,1 km/h (0 Bft) O 92 0 min 0,000 mm 0,0 UV-I 0 W/m 6,8 C 7,7 C 1,6 km/h (1 Bft) 100,00 %
20.03.2017 21:10 7,6 C 94 % 1009,0 hPa 0,0 l/m 1,4 km/h (1 Bft) O 92 0 min 0,000 mm 0,0 UV-I 0 W/m 6,7 C 7,6 C 3,2 km/h (1 Bft) 97,37 %
20.03.2017 21:12 7,7 C 95 % 1009,0 hPa 0,0 l/m 3,0 km/h (1 Bft) O 92 0 min 0,000 mm 0,0 UV-I 0 W/m 7,0 C 7,7 C 4,8 km/h (1 Bft) 95,74 %
20.03.2017 21:14 7,8 C 94 % 1009,1 hPa 0,0 l/m 2,4 km/h (1 Bft) O 92 0 min 0,000 mm 0,0 UV-I 0 W/m 6,9 C 7,8 C 4,8 km/h (1 Bft) 94,34 %
20.03.2017 21:16 7,8 C 94 % 1009,1 hPa 0,0 l/m 2,2 km/h (1 Bft) O 92 0 min 0,000 mm 0,0 UV-I 0 W/m 6,9 C 7,8 C 4,8 km/h (1 Bft) 97,87 %
20.03.2017 21:18 7,8 C 94 % 1009,1 hPa 0,0 l/m 1,4 km/h (1 Bft) O 92 0 min 0,000 mm 0,0 UV-I 0 W/m 6,9 C 7,8 C 3,2 km/h (1 Bft) 98,00 %
20.03.2017 21:20 7,8 C 95 % 1009,2 hPa 0,0 l/m 1,3 km/h (1 Bft) O 92 0 min 0,000 mm 0,0 UV-I 0 W/m 7,0 C 7,8 C 3,2 km/h (1 Bft) 100,00 %
20.03.2017 21:22 7,8 C 95 % 1009,2 hPa 0,0 l/m 2,1 km/h (1 Bft) O 92 0 min 0,000 mm 0,0 UV-I 0 W/m 7,0 C 7,8 C 3,2 km/h (1 Bft) 100,00 %
20.03.2017 21:24 7,8 C 95 % 1009,2 hPa 0,0 l/m 3,2 km/h (1 Bft) O 92 0 min 0,000 mm 0,0 UV-I 0 W/m 7,0 C 7,8 C 4,8 km/h (1 Bft) 94,87 %
20.03.2017 21:26 7,8 C 95 % 1009,2 hPa 0,0 l/m 3,0 km/h (1 Bft) O 92 0 min 0,000 mm 0,0 UV-I 0 W/m 7,0 C 7,8 C 4,8 km/h (1 Bft) 96,36 %
20.03.2017 21:28 7,8 C 95 % 1009,2 hPa 0,0 l/m 3,1 km/h (1 Bft) O 92 0 min 0,000 mm 0,0 UV-I 0 W/m 7,0 C 7,8 C 4,8 km/h (1 Bft) 100,00 %
20.03.2017 21:30 7,8 C 94 % 1009,3 hPa 0,0 l/m 2,5 km/h (1 Bft) O 92 0 min 0,000 mm 0,0 UV-I 0 W/m 6,9 C 7,8 C 3,2 km/h (1 Bft) 98,11 %
20.03.2017 21:32 7,8 C 94 % 1009,3 hPa 0,0 l/m 2,7 km/h (1 Bft) O 92 0 min 0,000 mm 0,0 UV-I 0 W/m 6,9 C 7,8 C 4,8 km/h (1 Bft) 97,56 %
20.03.2017 21:34 7,7 C 94 % 1009,2 hPa 0,0 l/m 3,3 km/h (1 Bft) O 92 0 min 0,000 mm 0,0 UV-I 0 W/m 6,8 C 7,7 C 4,8 km/h (1 Bft) 97,37 %
20.03.2017 21:36 7,7 C 94 % 1009,2 hPa 0,0 l/m 4,1 km/h (1 Bft) O 92 0 min 0,000 mm 0,0 UV-I 0 W/m 6,8 C 7,7 C 4,8 km/h (1 Bft) 100,00 %
20.03.2017 21:38 7,7 C 95 % 1009,2 hPa 0,0 l/m 3,5 km/h (1 Bft) O 92 0 min 0,000 mm 0,0 UV-I 0 W/m 7,0 C 7,7 C 4,8 km/h (1 Bft) 97,87 %
20.03.2017 21:40 7,7 C 95 % 1009,2 hPa 0,0 l/m 1,9 km/h (1 Bft) O 92 0 min 0,000 mm 0,0 UV-I 0 W/m 7,0 C 7,7 C 3,2 km/h (1 Bft) 98,11 %
20.03.2017 21:42 7,8 C 95 % 1009,2 hPa 0,0 l/m 1,0 km/h (0 Bft) O 92 0 min 0,000 mm 0,0 UV-I 0 W/m 7,0 C 7,8 C 1,6 km/h (1 Bft) 100,00 %
20.03.2017 21:44 7,8 C 95 % 1009,2 hPa 0,0 l/m 2,2 km/h (1 Bft) O 92 0 min 0,000 mm 0,0 UV-I 0 W/m 7,0 C 7,8 C 3,2 km/h (1 Bft) 100,00 %
20.03.2017 21:46 7,9 C 95 % 1009,2 hPa 0,0 l/m 2,6 km/h (1 Bft) O 92 0 min 0,000 mm 0,0 UV-I 0 W/m 7,1 C 7,9 C 3,2 km/h (1 Bft) 97,73 %
20.03.2017 21:48 7,9 C 95 % 1009,1 hPa 0,0 l/m 2,1 km/h (1 Bft) O 92 0 min 0,000 mm 0,0 UV-I 0 W/m 7,1 C 7,9 C 3,2 km/h (1 Bft) 93,88 %
20.03.2017 21:50 7,9 C 95 % 1009,2 hPa 0,0 l/m 1,3 km/h (1 Bft) O 92 0 min 0,000 mm 0,0 UV-I 0 W/m 7,1 C 7,9 C 3,2 km/h (1 Bft) 100,00 %
20.03.2017 21:52 7,8 C 94 % 1009,2 hPa 0,0 l/m 1,3 km/h (1 Bft) O 92 0 min 0,000 mm 0,0 UV-I 0 W/m 6,9 C 7,8 C 3,2 km/h (1 Bft) 97,62 %
20.03.2017 21:54 7,7 C 94 % 1009,2 hPa 0,0 l/m 2,1 km/h (1 Bft) O 92 0 min 0,000 mm 0,0 UV-I 0 W/m 6,8 C 7,7 C 4,8 km/h (1 Bft) 100,00 %
20.03.2017 21:56 7,6 C 94 % 1009,2 hPa 0,0 l/m 2,9 km/h (1 Bft) O 92 0 min 0,000 mm 0,0 UV-I 0 W/m 6,7 C 7,6 C 4,8 km/h (1 Bft) 98,00 %
20.03.2017 21:58 7,6 C 95 % 1009,1 hPa 0,0 l/m 2,1 km/h (1 Bft) O 92 0 min 0,000 mm 0,0 UV-I 0 W/m 6,9 C 7,6 C 3,2 km/h (1 Bft) 95,45 %
20.03.2017 22:00 7,6 C 95 % 1009,1 hPa 0,0 l/m 1,3 km/h (1 Bft) O 92 0 min 0,000 mm 0,0 UV-I 0 W/m 6,9 C 7,6 C 3,2 km/h (1 Bft) 95,45 %
20.03.2017 22:02 7,6 C 95 % 1009,0 hPa 0,0 l/m 1,0 km/h (0 Bft) O 92 0 min 0,000 mm 0,0 UV-I 0 W/m 6,9 C 7,6 C 3,2 km/h (1 Bft) 98,11 %
20.03.2017 22:04 7,7 C 95 % 1009,0 hPa 0,0 l/m 0,8 km/h (0 Bft) O 92 0 min 0,000 mm 0,0 UV-I 0 W/m 7,0 C 7,7 C 3,2 km/h (1 Bft) 97,44 %
20.03.2017 22:06 7,6 C 95 % 1009,0 hPa 0,0 l/m 0,1 km/h (0 Bft) O 92 0 min 0,000 mm 0,0 UV-I 0 W/m 6,9 C 7,6 C 1,6 km/h (1 Bft) 90,57 %
20.03.2017 22:08 7,6 C 95 % 1009,0 hPa 0,0 l/m 0,9 km/h (0 Bft) O 92 0 min 0,000 mm 0,0 UV-I 0 W/m 6,9 C 7,6 C 3,2 km/h (1 Bft) 85,71 %
20.03.2017 22:10 7,6 C 95 % 1009,0 hPa 0,0 l/m 1,1 km/h (1 Bft) O 92 0 min 0,000 mm 0,0 UV-I 0 W/m 6,9 C 7,6 C 3,2 km/h (1 Bft) 97,44 %
20.03.2017 22:12 7,7 C 95 % 1009,0 hPa 0,0 l/m 0,3 km/h (0 Bft) O 92 0 min 0,000 mm 0,0 UV-I 0 W/m 7,0 C 7,7 C 1,6 km/h (1 Bft) 98,00 %
20.03.2017 22:14 7,7 C 95 % 1009,0 hPa 0,0 l/m 0,1 km/h (0 Bft) O 92 0 min 0,000 mm 0,0 UV-I 0 W/m 7,0 C 7,7 C 1,6 km/h (1 Bft) 97,37 %
20.03.2017 22:16 7,6 C 95 % 1009,0 hPa 0,0 l/m 0,0 km/h (0 Bft) O 92 0 min 0,000 mm 0,0 UV-I 0 W/m 6,9 C 7,6 C 0,0 km/h (0 Bft) 98,11 %
20.03.2017 22:18 7,6 C 95 % 1009,0 hPa 0,0 l/m 0,0 km/h (0 Bft) O 92 0 min 0,000 mm 0,0 UV-I 0 W/m 6,9 C 7,6 C 1,6 km/h (1 Bft) 96,00 %
20.03.2017 22:20 7,7 C 95 % 1009,0 hPa 0,0 l/m 0,0 km/h (0 Bft) O 92 0 min 0,000 mm 0,0 UV-I 0 W/m 7,0 C 7,7 C 0,0 km/h (0 Bft) 97,87 %
20.03.2017 22:22 7,6 C 95 % 1009,0 hPa 0,0 l/m 1,7 km/h (1 Bft) O 92 0 min 0,000 mm 0,0 UV-I 0 W/m 6,9 C 7,6 C 3,2 km/h (1 Bft) 97,87 %
20.03.2017 22:24 7,5 C 95 % 1009,0 hPa 0,0 l/m 2,5 km/h (1 Bft) O 92 0 min 0,000 mm 0,0 UV-I 0 W/m 6,8 C 7,5 C 4,8 km/h (1 Bft) 94,00 %
20.03.2017 22:26 7,4 C 95 % 1009,0 hPa 0,0 l/m 1,3 km/h (1 Bft) O 92 0 min 0,000 mm 0,0 UV-I 0 W/m 6,7 C 7,4 C 3,2 km/h (1 Bft) 94,74 %
20.03.2017 22:28 7,3 C 95 % 1009,0 hPa 0,0 l/m 2,2 km/h (1 Bft) O 92 0 min 0,000 mm 0,0 UV-I 0 W/m 6,6 C 7,3 C 4,8 km/h (1 Bft) 94,00 %
20.03.2017 22:30 7,3 C 95 % 1009,0 hPa 0,0 l/m 1,2 km/h (1 Bft) O 92 0 min 0,000 mm 0,0 UV-I 0 W/m 6,6 C 7,3 C 3,2 km/h (1 Bft) 96,23 %
20.03.2017 22:32 7,3 C 95 % 1009,0 hPa 0,0 l/m 0,7 km/h (0 Bft) O 92 0 min 0,000 mm 0,0 UV-I 0 W/m 6,6 C 7,3 C 1,6 km/h (1 Bft) 97,14 %
20.03.2017 22:34 7,3 C 95 % 1009,0 hPa 0,0 l/m 2,0 km/h (1 Bft) O 92 0 min 0,000 mm 0,0 UV-I 0 W/m 6,6 C 7,3 C 3,2 km/h (1 Bft) 94,64 %
20.03.2017 22:36 7,3 C 95 % 1009,0 hPa 0,0 l/m 2,6 km/h (1 Bft) O 92 0 min 0,000 mm 0,0 UV-I 0 W/m 6,6 C 7,3 C 4,8 km/h (1 Bft) 92,00 %
20.03.2017 22:38 7,4 C 96 % 1009,0 hPa 0,0 l/m 2,9 km/h (1 Bft) O 92 0 min 0,000 mm 0,0 UV-I 0 W/m 6,8 C 7,4 C 3,2 km/h (1 Bft) 97,56 %
20.03.2017 22:40 7,4 C 95 % 1009,0 hPa 0,0 l/m 2,3 km/h (1 Bft) O 92 0 min 0,000 mm 0,0 UV-I 0 W/m 6,7 C 7,4 C 4,8 km/h (1 Bft) 98,00 %
20.03.2017 22:42 7,3 C 95 % 1009,0 hPa 0,0 l/m 2,2 km/h (1 Bft) O 92 0 min 0,000 mm 0,0 UV-I 0 W/m 6,6 C 7,3 C 3,2 km/h (1 Bft) 100,00 %
20.03.2017 22:44 7,3 C 95 % 1009,0 hPa 0,0 l/m 3,3 km/h (1 Bft) O 92 0 min 0,000 mm 0,0 UV-I 0 W/m 6,6 C 7,3 C 4,8 km/h (1 Bft) 95,74 %
20.03.2017 22:46 7,3 C 95 % 1009,0 hPa 0,0 l/m 3,5 km/h (1 Bft) O 93 0 min 0,000 mm 0,0 UV-I 0 W/m 6,6 C 7,3 C 4,8 km/h (1 Bft) 100,00 %
20.03.2017 22:48 7,3 C 95 % 1009,0 hPa 0,0 l/m 2,8 km/h (1 Bft) O 94 0 min 0,000 mm 0,0 UV-I 0 W/m 6,6 C 7,3 C 4,8 km/h (1 Bft) 95,56 %
20.03.2017 22:50 7,4 C 96 % 1008,9 hPa 0,0 l/m 2,7 km/h (1 Bft) O 101 0 min 0,000 mm 0,0 UV-I 0 W/m 6,8 C 7,4 C 4,8 km/h (1 Bft) 97,87 %
20.03.2017 22:53 7,6 C 96 % 1009,0 hPa 0,0 l/m 2,9 km/h (1 Bft) SO 130 0 min 0,000 mm 0,0 UV-I 0 W/m 7,0 C 7,6 C 4,8 km/h (1 Bft) 97,47 %
20.03.2017 22:54 7,6 C 96 % 1009,0 hPa 0,0 l/m 2,8 km/h (1 Bft) SO 130 0 min 0,000 mm 0,0 UV-I 0 W/m 7,0 C 7,6 C 3,2 km/h (1 Bft) 93,33 %
20.03.2017 22:56 7,7 C 96 % 1009,0 hPa 0,0 l/m 3,0 km/h (1 Bft) SO 130 0 min 0,000 mm 0,0 UV-I 0 W/m 7,1 C 7,7 C 4,8 km/h (1 Bft) 96,23 %
20.03.2017 22:58 7,8 C 96 % 1009,0 hPa 0,0 l/m 3,7 km/h (1 Bft) SO 130 0 min 0,000 mm 0,0 UV-I 0 W/m 7,2 C 7,8 C 4,8 km/h (1 Bft) 97,87 %
20.03.2017 23:00 7,8 C 96 % 1009,0 hPa 0,0 l/m 3,5 km/h (1 Bft) SO 130 0 min 0,000 mm 0,0 UV-I 0 W/m 7,2 C 7,8 C 4,8 km/h (1 Bft) 100,00 %
20.03.2017 23:02 7,8 C 95 % 1009,0 hPa 0,0 l/m 2,3 km/h (1 Bft) SO 130 0 min 0,000 mm 0,0 UV-I 0 W/m 7,0 C 7,8 C 3,2 km/h (1 Bft) 92,45 %
20.03.2017 23:04 7,8 C 95 % 1009,1 hPa 0,0 l/m 2,5 km/h (1 Bft) SO 130 0 min 0,000 mm 0,0 UV-I 0 W/m 7,0 C 7,8 C 3,2 km/h (1 Bft) 97,87 %
20.03.2017 23:06 7,7 C 95 % 1009,1 hPa 0,0 l/m 1,9 km/h (1 Bft) SO 130 0 min 0,000 mm 0,0 UV-I 0 W/m 7,0 C 7,7 C 3,2 km/h (1 Bft) 97,56 %
20.03.2017 23:08 7,7 C 95 % 1009,1 hPa 0,0 l/m 3,4 km/h (1 Bft) SO 130 0 min 0,000 mm 0,0 UV-I 0 W/m 7,0 C 7,7 C 4,8 km/h (1 Bft) 100,00 %
20.03.2017 23:10 7,7 C 95 % 1009,1 hPa 0,0 l/m 1,8 km/h (1 Bft) SO 130 0 min 0,000 mm 0,0 UV-I 0 W/m 7,0 C 7,7 C 3,2 km/h (1 Bft) 97,37 %
20.03.2017 23:12 7,6 C 95 % 1009,1 hPa 0,0 l/m 1,6 km/h (1 Bft) SO 130 0 min 0,000 mm 0,0 UV-I 0 W/m 6,9 C 7,6 C 3,2 km/h (1 Bft) 96,43 %
20.03.2017 23:14 7,5 C 95 % 1009,2 hPa 0,0 l/m 2,0 km/h (1 Bft) SO 130 0 min 0,000 mm 0,0 UV-I 0 W/m 6,8 C 7,5 C 3,2 km/h (1 Bft) 100,00 %
20.03.2017 23:16 7,4 C 95 % 1009,1 hPa 0,0 l/m 2,1 km/h (1 Bft) SO 130 0 min 0,000 mm 0,0 UV-I 0 W/m 6,7 C 7,4 C 3,2 km/h (1 Bft) 95,16 %
20.03.2017 23:18 7,4 C 95 % 1009,2 hPa 0,0 l/m 1,8 km/h (1 Bft) SO 130 0 min 0,000 mm 0,0 UV-I 0 W/m 6,7 C 7,4 C 3,2 km/h (1 Bft) 94,74 %
20.03.2017 23:20 7,4 C 95 % 1009,2 hPa 0,0 l/m 0,2 km/h (0 Bft) SO 130 0 min 0,000 mm 0,0 UV-I 0 W/m 6,7 C 7,4 C 1,6 km/h (1 Bft) 93,62 %
20.03.2017 23:22 7,3 C 95 % 1009,3 hPa 0,0 l/m 0,7 km/h (0 Bft) SO 130 0 min 0,000 mm 0,0 UV-I 0 W/m 6,6 C 7,3 C 1,6 km/h (1 Bft) 94,00 %
20.03.2017 23:24 7,3 C 95 % 1009,2 hPa 0,0 l/m 1,9 km/h (1 Bft) SO 130 0 min 0,000 mm 0,0 UV-I 0 W/m 6,6 C 7,3 C 3,2 km/h (1 Bft) 94,34 %
20.03.2017 23:26 7,3 C 95 % 1009,3 hPa 0,0 l/m 3,3 km/h (1 Bft) SO 130 0 min 0,000 mm 0,0 UV-I 0 W/m 6,6 C 7,3 C 4,8 km/h (1 Bft) 92,31 %
20.03.2017 23:28 7,3 C 95 % 1009,3 hPa 0,0 l/m 3,0 km/h (1 Bft) SO 130 0 min 0,000 mm 0,0 UV-I 0 W/m 6,6 C 7,3 C 4,8 km/h (1 Bft) 96,00 %
20.03.2017 23:30 7,2 C 95 % 1009,3 hPa 0,0 l/m 1,3 km/h (1 Bft) SO 130 0 min 0,000 mm 0,0 UV-I 0 W/m 6,5 C 7,2 C 3,2 km/h (1 Bft) 94,34 %
20.03.2017 23:32 7,2 C 95 % 1009,4 hPa 0,0 l/m 1,5 km/h (1 Bft) SO 130 0 min 0,000 mm 0,0 UV-I 0 W/m 6,5 C 7,2 C 3,2 km/h (1 Bft) 97,37 %
20.03.2017 23:34 7,2 C 95 % 1009,3 hPa 0,0 l/m 0,2 km/h (0 Bft) SO 130 0 min 0,000 mm 0,0 UV-I 0 W/m 6,5 C 7,2 C 1,6 km/h (1 Bft) 95,74 %
20.03.2017 23:36 7,2 C 96 % 1009,3 hPa 0,0 l/m 0,8 km/h (0 Bft) SO 130 0 min 0,000 mm 0,0 UV-I 0 W/m 6,6 C 7,2 C 3,2 km/h (1 Bft) 96,00 %
20.03.2017 23:38 7,2 C 96 % 1009,3 hPa 0,0 l/m 2,0 km/h (1 Bft) SO 130 0 min 0,000 mm 0,0 UV-I 0 W/m 6,6 C 7,2 C 3,2 km/h (1 Bft) 96,00 %
20.03.2017 23:40 7,2 C 96 % 1009,3 hPa 0,0 l/m 2,1 km/h (1 Bft) SO 130 0 min 0,000 mm 0,0 UV-I 0 W/m 6,6 C 7,2 C 3,2 km/h (1 Bft) 97,56 %
20.03.2017 23:42 7,1 C 96 % 1009,4 hPa 0,0 l/m 2,3 km/h (1 Bft) SO 130 0 min 0,000 mm 0,0 UV-I 0 W/m 6,5 C 7,1 C 3,2 km/h (1 Bft) 92,68 %
20.03.2017 23:44 7,1 C 96 % 1009,3 hPa 0,0 l/m 1,9 km/h (1 Bft) SO 130 0 min 0,000 mm 0,0 UV-I 0 W/m 6,5 C 7,1 C 3,2 km/h (1 Bft) 98,00 %
20.03.2017 23:46 7,1 C 95 % 1009,4 hPa 0,0 l/m 2,1 km/h (1 Bft) SO 130 0 min 0,000 mm 0,0 UV-I 0 W/m 6,4 C 7,1 C 3,2 km/h (1 Bft) 96,00 %
20.03.2017 23:48 6,9 C 95 % 1009,3 hPa 0,0 l/m 0,7 km/h (0 Bft) SO 130 0 min 0,000 mm 0,0 UV-I 0 W/m 6,2 C 6,9 C 3,2 km/h (1 Bft) 98,00 %
20.03.2017 23:50 6,8 C 96 % 1009,3 hPa 0,0 l/m 0,8 km/h (0 Bft) SO 130 0 min 0,000 mm 0,0 UV-I 0 W/m 6,2 C 6,8 C 3,2 km/h (1 Bft) 95,74 %
20.03.2017 23:52 6,8 C 96 % 1009,3 hPa 0,0 l/m 1,0 km/h (0 Bft) SO 130 0 min 0,000 mm 0,0 UV-I 0 W/m 6,2 C 6,8 C 3,2 km/h (1 Bft) 95,12 %
20.03.2017 23:54 6,8 C 96 % 1009,3 hPa 0,0 l/m 3,2 km/h (1 Bft) SO 130 0 min 0,000 mm 0,0 UV-I 0 W/m 6,2 C 6,8 C 4,8 km/h (1 Bft) 98,00 %
20.03.2017 23:56 6,8 C 96 % 1009,3 hPa 0,0 l/m 2,9 km/h (1 Bft) SO 130 0 min 0,000 mm 0,0 UV-I 0 W/m 6,2 C 6,8 C 4,8 km/h (1 Bft) 96,00 %
20.03.2017 23:58 6,8 C 96 % 1009,3 hPa 0,0 l/m 3,8 km/h (1 Bft) SO 130 0 min 0,000 mm 0,0 UV-I 0 W/m 6,2 C 6,8 C 6,4 km/h (2 Bft) 95,12 %
_ Min-Zeit 23:50 15:14 22:50 - 16:10 - - - - - - 23:48 06:40 16:10 13:50
Minimum _ 6,8 C 70 % 1008,9 hPa - 0,0 km/h (0 Bft) - - - - - - 6,2 C 2,4 C 0,0 km/h (0 Bft) 85,37 %
_ Max-Zeit 15:00 22:38 10:16 00:00 00:42 - - 12:43 13:02 12:34 12:54 15:00 14:54 01:42 00:08
Maximum _ 14,6 C 96 % 1013,1 hPa 0,0 l/m 24,1 km/h
W-SW (4 Bft)
- - 3 min 0,254 mm 3,0 UV-I 764 W/m 9,8 C 14,4 C 40,2 km/h
W (6 Bft)
100,00 %
Durchschnitt _ 10,8 C 84 % 1010,8 hPa #0,0 l/m 10,0 km/h (2 Bft) W-SW - #4:04 h #1,702 mm 1,2 UV-I 207 W/m 8,1 C 8,1 C 15,5 km/h (3 Bft) 96,38 %